Time,TemperatureF,DewpointF,PressureIn,WindDirection,WindDirectionDegrees,WindSpeedMPH,WindSpeedGustMPH,Humidity,HourlyPrecipIn,Conditions,Clouds,dailyrainin,SoftwareType,DateUTC
2013-05-05 00:00:00,37.4,35.4,30.00,North,353,0.0,0.0,92,0.00,,CLR,0.00,VWS V14.01,2013-05-05 05:00:00,
2013-05-05 00:01:00,37.4,35.4,30.00,North,357,0.0,0.0,92,0.00,,FEW034,0.00,VWS V14.01,2013-05-05 05:01:00,
2013-05-05 00:02:00,37.4,35.4,30.00,North,357,0.0,0.0,92,0.00,,CLR,0.00,VWS V14.01,2013-05-05 05:02:00,
2013-05-05 00:04:00,37.2,35.6,30.00,North,357,0.0,0.0,94,0.00,,CLR,0.00,VWS V14.01,2013-05-05 05:04:00,
2013-05-05 00:06:00,37.2,35.6,30.00,North,349,0.0,0.0,94,0.00,,FEW034,0.00,VWS V14.01,2013-05-05 05:06:00,
2013-05-05 00:08:00,37.2,35.6,30.00,North,350,0.0,0.0,94,0.00,,CLR,0.00,VWS V14.01,2013-05-05 05:08:00,
2013-05-05 00:10:00,37.0,35.4,30.00,North,350,0.0,0.0,94,0.00,,CLR,0.00,VWS V14.01,2013-05-05 05:10:00,
2013-05-05 00:11:00,37.0,35.4,30.00,North,357,0.0,4.1,94,0.00,,FEW034,0.00,VWS V14.01,2013-05-05 05:11:00,
2013-05-05 00:12:00,37.0,35.4,30.00,North,0,0.0,4.1,94,0.00,,CLR,0.00,VWS V14.01,2013-05-05 05:12:00,
2013-05-05 00:14:00,37.0,35.4,30.00,NNW,331,0.0,0.0,94,0.00,,CLR,0.00,VWS V14.01,2013-05-05 05:14:00,
2013-05-05 00:16:00,37.0,35.4,30.00,NNW,331,0.0,0.0,94,0.00,,FEW034,0.00,VWS V14.01,2013-05-05 05:16:00,
2013-05-05 00:18:00,37.0,35.4,30.00,NNW,331,0.0,0.0,94,0.00,,CLR,0.00,VWS V14.01,2013-05-05 05:18:00,
2013-05-05 00:20:00,37.0,35.8,30.00,NNW,331,0.0,0.0,95,0.00,,CLR,0.00,VWS V14.01,2013-05-05 05:20:00,
2013-05-05 00:21:00,37.2,35.9,30.00,NNW,331,0.0,0.0,95,0.00,,SCT036,0.00,VWS V14.01,2013-05-05 05:21:00,
2013-05-05 00:22:00,37.2,35.9,30.00,NNW,331,0.0,0.0,95,0.00,,CLR,0.00,VWS V14.01,2013-05-05 05:22:00,
2013-05-05 00:24:00,37.2,35.9,30.00,NNW,331,0.0,0.0,95,0.00,,CLR,0.00,VWS V14.01,2013-05-05 05:24:00,
2013-05-05 00:26:00,37.4,36.1,30.00,NNW,332,0.0,0.0,95,0.00,,SCT036,0.00,VWS V14.01,2013-05-05 05:26:00,
2013-05-05 00:28:00,37.6,36.3,30.00,NW,304,2.8,3.5,95,0.00,,CLR,0.00,VWS V14.01,2013-05-05 05:28:00,
2013-05-05 00:30:00,37.6,36.3,30.00,NW,312,0.0,0.0,95,0.00,,CLR,0.00,VWS V14.01,2013-05-05 05:30:00,
2013-05-05 00:31:00,37.8,36.5,30.00,NW,312,0.0,0.0,95,0.00,,SCT036,0.00,VWS V14.01,2013-05-05 05:31:00,
2013-05-05 00:32:00,37.8,36.5,30.00,NW,312,0.0,0.0,95,0.00,,CLR,0.00,VWS V14.01,2013-05-05 05:32:00,
2013-05-05 00:34:00,37.8,36.5,30.00,NW,312,0.0,0.0,95,0.00,,CLR,0.00,VWS V14.01,2013-05-05 05:34:00,
2013-05-05 00:36:00,37.9,36.7,30.00,NW,312,0.0,0.0,95,0.00,,CLR,0.00,VWS V14.01,2013-05-05 05:36:00,
2013-05-05 00:37:00,37.9,36.7,30.00,NW,312,0.0,0.0,95,0.00,,SCT036,0.00,VWS V14.01,2013-05-05 05:37:00,
2013-05-05 00:38:00,37.9,36.7,30.00,North,357,0.0,2.9,95,0.00,,CLR,0.00,VWS V14.01,2013-05-05 05:38:00,
2013-05-05 00:40:00,37.9,37.0,30.00,NW,317,0.0,0.0,96,0.00,,CLR,0.00,VWS V14.01,2013-05-05 05:40:00,
2013-05-05 00:42:00,38.1,37.2,30.00,NW,319,0.0,0.0,96,0.00,,OVC034,0.00,VWS V14.01,2013-05-05 05:42:00,
2013-05-05 00:44:00,38.1,37.2,30.00,North,357,0.0,4.1,96,0.00,,CLR,0.00,VWS V14.01,2013-05-05 05:44:00,
2013-05-05 00:46:00,38.1,37.2,30.00,North,357,0.0,0.0,96,0.00,,CLR,0.00,VWS V14.01,2013-05-05 05:46:00,
2013-05-05 00:47:00,38.1,37.2,30.00,North,357,0.0,0.0,96,0.00,,OVC034,0.00,VWS V14.01,2013-05-05 05:47:00,
2013-05-05 00:48:00,38.1,37.2,30.00,North,357,0.0,0.0,96,0.00,,CLR,0.00,VWS V14.01,2013-05-05 05:48:00,
2013-05-05 00:50:00,38.1,37.2,30.00,North,357,2.8,2.9,96,0.00,,CLR,0.00,VWS V14.01,2013-05-05 05:50:00,
2013-05-05 00:52:00,38.1,37.2,30.00,North,4,0.0,2.9,96,0.00,,OVC034,0.00,VWS V14.01,2013-05-05 05:52:00,
2013-05-05 00:54:00,38.3,37.4,30.00,NNE,19,4.4,4.7,96,0.00,,CLR,0.00,VWS V14.01,2013-05-05 05:54:00,
2013-05-05 00:56:00,38.3,37.4,30.00,North,7,3.3,6.4,96,0.00,,CLR,0.00,VWS V14.01,2013-05-05 05:56:00,
2013-05-05 00:57:00,38.3,37.4,30.00,NNW,339,0.0,4.7,96,0.00,,OVC034,0.00,VWS V14.01,2013-05-05 05:57:00,
2013-05-05 00:58:00,38.3,37.4,30.00,North,1,0.0,4.7,96,0.00,,CLR,0.00,VWS V14.01,2013-05-05 05:58:00,
2013-05-05 01:00:00,38.3,37.4,30.00,North,353,3.9,4.1,96,0.00,,CLR,0.00,VWS V14.01,2013-05-05 06:00:00,
2013-05-05 01:02:00,38.5,37.9,30.00,North,3,0.0,4.1,98,0.00,,OVC036,0.00,VWS V14.01,2013-05-05 06:02:00,
2013-05-05 01:04:00,38.5,37.9,30.00,North,357,0.0,0.0,98,0.00,,CLR,0.00,VWS V14.01,2013-05-05 06:04:00,
2013-05-05 01:06:00,38.5,37.9,30.00,North,353,0.0,0.0,98,0.00,,CLR,0.00,VWS V14.01,2013-05-05 06:06:00,
2013-05-05 01:07:00,38.5,37.9,30.00,North,353,0.0,0.0,98,0.00,,OVC036,0.00,VWS V14.01,2013-05-05 06:07:00,
2013-05-05 01:08:00,38.5,37.9,30.00,North,0,0.0,0.0,98,0.00,,CLR,0.00,VWS V14.01,2013-05-05 06:08:00,
2013-05-05 01:10:00,38.7,38.1,30.00,North,7,0.0,0.0,98,0.00,,CLR,0.00,VWS V14.01,2013-05-05 06:10:00,
2013-05-05 01:12:00,38.7,38.1,30.03,North,3,0.0,0.0,98,0.00,,OVC036,0.00,VWS V14.01,2013-05-05 06:12:00,
2013-05-05 01:14:00,38.7,38.1,30.03,NNE,33,0.0,0.0,98,0.00,,CLR,0.00,VWS V14.01,2013-05-05 06:14:00,
2013-05-05 01:16:00,38.7,38.1,30.03,North,11,0.0,3.5,98,0.00,,CLR,0.00,VWS V14.01,2013-05-05 06:16:00,
2013-05-05 01:17:00,38.7,38.1,30.03,NNW,338,0.0,3.5,98,0.00,,OVC036,0.00,VWS V14.01,2013-05-05 06:17:00,
2013-05-05 01:18:00,38.7,38.1,30.03,North,357,0.0,2.9,98,0.00,,CLR,0.00,VWS V14.01,2013-05-05 06:18:00,
2013-05-05 01:20:00,38.7,38.1,30.03,North,357,0.0,0.0,98,0.00,,CLR,0.00,VWS V14.01,2013-05-05 06:20:00,
2013-05-05 01:22:00,38.7,38.1,30.03,North,357,0.0,0.0,98,0.00,,OVC036,0.00,VWS V14.01,2013-05-05 06:22:00,
2013-05-05 01:24:00,38.7,38.4,30.03,NNW,343,0.0,4.1,99,0.00,,CLR,0.00,VWS V14.01,2013-05-05 06:24:00,
2013-05-05 01:26:00,38.7,38.4,30.00,North,11,3.3,5.2,99,0.00,,CLR,0.00,VWS V14.01,2013-05-05 06:26:00,
2013-05-05 01:27:00,38.7,38.4,30.00,North,6,0.0,5.2,99,0.00,,OVC036,0.00,VWS V14.01,2013-05-05 06:27:00,
2013-05-05 01:28:00,38.7,38.4,30.00,North,7,0.0,3.5,99,0.00,,CLR,0.00,VWS V14.01,2013-05-05 06:28:00,
2013-05-05 01:30:00,38.7,38.4,30.00,NNE,28,0.0,0.0,99,0.00,,CLR,0.00,VWS V14.01,2013-05-05 06:30:00,
2013-05-05 01:32:00,38.5,38.2,30.00,North,8,0.0,0.0,99,0.00,,OVC036,0.00,VWS V14.01,2013-05-05 06:32:00,
2013-05-05 01:34:00,38.5,38.2,30.00,North,353,0.0,0.0,99,0.00,,CLR,0.00,VWS V14.01,2013-05-05 06:34:00,
2013-05-05 01:36:00,38.5,38.2,30.00,NW,324,0.0,0.0,99,0.00,,CLR,0.00,VWS V14.01,2013-05-05 06:36:00,
2013-05-05 01:37:00,38.5,38.2,30.00,North,357,0.0,0.0,99,0.00,,OVC036,0.00,VWS V14.01,2013-05-05 06:37:00,
2013-05-05 01:38:00,38.5,38.2,30.00,North,357,0.0,0.0,99,0.00,,CLR,0.00,VWS V14.01,2013-05-05 06:38:00,
2013-05-05 01:40:00,38.7,38.4,30.00,North,357,0.0,0.0,99,0.00,,CLR,0.00,VWS V14.01,2013-05-05 06:40:00,
2013-05-05 01:42:00,38.5,38.2,30.00,NNW,342,0.0,0.0,99,0.00,,OVC036,0.00,VWS V14.01,2013-05-05 06:42:00,
2013-05-05 01:44:00,38.7,38.4,30.00,North,0,0.0,5.2,99,0.00,,CLR,0.00,VWS V14.01,2013-05-05 06:44:00,
2013-05-05 01:46:00,38.7,38.4,30.00,North,353,0.0,4.7,99,0.00,,CLR,0.00,VWS V14.01,2013-05-05 06:46:00,
2013-05-05 01:47:00,38.7,38.7,30.00,North,353,0.0,4.7,100,0.00,,OVC036,0.00,VWS V14.01,2013-05-05 06:47:00,
2013-05-05 01:48:00,38.7,38.7,30.00,North,357,0.0,0.0,100,0.00,,CLR,0.00,VWS V14.01,2013-05-05 06:48:00,
2013-05-05 01:50:00,38.7,38.7,30.00,North,0,0.0,0.0,100,0.00,,CLR,0.00,VWS V14.01,2013-05-05 06:50:00,
2013-05-05 01:52:00,38.7,38.7,30.00,North,6,0.0,0.0,100,0.00,,OVC036,0.00,VWS V14.01,2013-05-05 06:52:00,
2013-05-05 01:54:00,38.7,38.7,30.00,NNE,17,2.8,2.9,100,0.00,,CLR,0.00,VWS V14.01,2013-05-05 06:54:00,
2013-05-05 01:56:00,38.5,38.5,30.00,North,2,0.0,4.1,100,0.00,,CLR,0.00,VWS V14.01,2013-05-05 06:56:00,
2013-05-05 01:57:00,38.5,38.5,30.00,North,2,0.0,4.1,100,0.00,,OVC036,0.00,VWS V14.01,2013-05-05 06:57:00,
2013-05-05 01:58:00,38.5,38.5,30.00,North,2,0.0,0.0,100,0.00,,CLR,0.00,VWS V14.01,2013-05-05 06:58:00,
2013-05-05 02:00:00,38.5,38.5,30.00,North,3,0.0,0.0,100,0.00,,CLR,0.00,VWS V14.01,2013-05-05 07:00:00,
2013-05-05 02:02:00,38.5,38.5,30.00,North,8,0.0,0.0,100,0.00,,OVC034,0.00,VWS V14.01,2013-05-05 07:02:00,
2013-05-05 02:04:00,38.5,38.5,30.00,North,357,0.0,0.0,100,0.00,,CLR,0.00,VWS V14.01,2013-05-05 07:04:00,
2013-05-05 02:06:00,38.3,38.3,30.00,North,5,0.0,0.0,100,0.00,,CLR,0.00,VWS V14.01,2013-05-05 07:06:00,
2013-05-05 02:07:00,38.3,38.3,30.00,North,357,2.8,3.5,100,0.00,,OVC034,0.00,VWS V14.01,2013-05-05 07:07:00,
2013-05-05 02:08:00,38.3,38.3,30.00,North,357,0.0,3.5,100,0.00,,CLR,0.00,VWS V14.01,2013-05-05 07:08:00,
2013-05-05 02:10:00,38.3,38.3,30.00,NW,324,3.9,5.2,100,0.00,,CLR,0.00,VWS V14.01,2013-05-05 07:10:00,
2013-05-05 02:12:00,38.5,38.5,30.00,North,353,0.0,3.5,100,0.00,,OVC034,0.00,VWS V14.01,2013-05-05 07:12:00,
2013-05-05 02:14:00,38.5,38.5,30.00,North,357,0.0,0.0,100,0.00,,CLR,0.00,VWS V14.01,2013-05-05 07:14:00,
2013-05-05 02:16:00,38.5,38.5,30.00,North,353,5.0,5.2,100,0.00,,CLR,0.00,VWS V14.01,2013-05-05 07:16:00,
2013-05-05 02:17:00,38.5,38.5,30.00,NW,325,0.0,5.2,100,0.00,,OVC034,0.00,VWS V14.01,2013-05-05 07:17:00,
2013-05-05 02:18:00,38.5,38.5,30.00,NW,325,0.0,5.2,100,0.00,,CLR,0.00,VWS V14.01,2013-05-05 07:18:00,
2013-05-05 02:20:00,38.5,38.5,30.00,North,9,3.3,4.7,100,0.00,,CLR,0.00,VWS V14.01,2013-05-05 07:20:00,
2013-05-05 02:22:00,38.5,38.5,30.00,North,0,2.8,7.0,100,0.00,,OVC034,0.00,VWS V14.01,2013-05-05 07:22:00,
2013-05-05 02:24:00,38.5,38.5,30.00,NNW,336,2.8,5.2,100,0.00,,CLR,0.00,VWS V14.01,2013-05-05 07:24:00,
2013-05-05 02:26:00,38.5,38.5,30.00,North,3,3.9,4.7,100,0.00,,CLR,0.00,VWS V14.01,2013-05-05 07:26:00,
2013-05-05 02:27:00,38.5,38.5,30.00,NNW,344,0.0,4.7,100,0.00,,OVC034,0.00,VWS V14.01,2013-05-05 07:27:00,
2013-05-05 02:28:00,38.7,38.7,30.00,NNW,337,4.4,4.7,100,0.00,,CLR,0.00,VWS V14.01,2013-05-05 07:28:00,
2013-05-05 02:30:00,38.5,38.5,30.00,NNW,332,0.0,4.7,100,0.00,,CLR,0.00,VWS V14.01,2013-05-05 07:30:00,
2013-05-05 02:32:00,38.5,38.5,30.00,NW,326,2.8,5.2,100,0.00,,OVC034,0.00,VWS V14.01,2013-05-05 07:32:00,
2013-05-05 02:34:00,38.5,38.5,30.00,North,357,0.0,5.2,100,0.00,,CLR,0.00,VWS V14.01,2013-05-05 07:34:00,
2013-05-05 02:36:00,38.5,38.5,30.00,NNW,343,0.0,0.0,100,0.00,,CLR,0.00,VWS V14.01,2013-05-05 07:36:00,
2013-05-05 02:37:00,38.5,38.5,30.00,North,6,0.0,0.0,100,0.00,,OVC034,0.00,VWS V14.01,2013-05-05 07:37:00,
2013-05-05 02:38:00,38.5,38.5,30.00,NNW,338,0.0,0.0,100,0.00,,CLR,0.00,VWS V14.01,2013-05-05 07:38:00,
2013-05-05 02:40:00,38.5,38.5,30.00,North,357,2.8,5.2,100,0.00,,CLR,0.00,VWS V14.01,2013-05-05 07:40:00,
2013-05-05 02:42:00,38.5,38.5,30.00,North,357,0.0,0.0,100,0.00,,OVC027,0.00,VWS V14.01,2013-05-05 07:42:00,
2013-05-05 02:44:00,38.3,38.3,30.00,North,4,0.0,0.0,100,0.00,,CLR,0.00,VWS V14.01,2013-05-05 07:44:00,
2013-05-05 02:46:00,38.1,38.1,30.00,NNE,20,3.3,3.5,100,0.00,,CLR,0.00,VWS V14.01,2013-05-05 07:46:00,
2013-05-05 02:47:00,38.1,38.1,30.00,NNE,14,0.0,4.7,100,0.00,,OVC027,0.00,VWS V14.01,2013-05-05 07:47:00,
2013-05-05 02:48:00,38.1,38.1,30.00,NNE,14,0.0,4.7,100,0.00,,CLR,0.00,VWS V14.01,2013-05-05 07:48:00,
2013-05-05 02:50:00,37.9,37.9,30.00,NNE,14,0.0,0.0,100,0.00,,CLR,0.00,VWS V14.01,2013-05-05 07:50:00,
2013-05-05 02:52:00,37.9,37.9,30.00,NNE,14,0.0,0.0,100,0.00,,OVC027,0.00,VWS V14.01,2013-05-05 07:52:00,
2013-05-05 02:54:00,37.8,37.8,30.00,North,7,0.0,3.5,100,0.00,,CLR,0.00,VWS V14.01,2013-05-05 07:54:00,
2013-05-05 02:56:00,37.6,37.6,30.00,North,357,0.0,0.0,100,0.00,,CLR,0.00,VWS V14.01,2013-05-05 07:56:00,
2013-05-05 02:57:00,37.6,37.6,30.00,North,357,0.0,0.0,100,0.00,,OVC027,0.00,VWS V14.01,2013-05-05 07:57:00,
2013-05-05 02:58:00,37.6,37.6,30.00,North,357,0.0,0.0,100,0.00,,CLR,0.00,VWS V14.01,2013-05-05 07:58:00,
2013-05-05 03:00:00,37.4,37.4,30.00,North,357,0.0,0.0,100,0.00,,CLR,0.00,VWS V14.01,2013-05-05 08:00:00,
2013-05-05 03:02:00,37.2,37.2,30.00,North,357,0.0,0.0,100,0.00,,SCT029,0.00,VWS V14.01,2013-05-05 08:02:00,
2013-05-05 03:04:00,37.0,37.0,30.00,North,357,0.0,0.0,100,0.00,,CLR,0.00,VWS V14.01,2013-05-05 08:04:00,
2013-05-05 03:06:00,37.0,37.0,30.00,North,357,0.0,0.0,100,0.00,,CLR,0.00,VWS V14.01,2013-05-05 08:06:00,
2013-05-05 03:07:00,36.9,36.9,30.00,North,357,0.0,0.0,100,0.00,,SCT029,0.00,VWS V14.01,2013-05-05 08:07:00,
2013-05-05 03:08:00,36.9,36.9,30.00,North,357,0.0,0.0,100,0.00,,CLR,0.00,VWS V14.01,2013-05-05 08:08:00,
2013-05-05 03:10:00,36.9,36.9,30.00,North,357,0.0,0.0,100,0.00,,CLR,0.00,VWS V14.01,2013-05-05 08:10:00,
2013-05-05 03:12:00,36.9,36.9,30.00,North,357,0.0,0.0,100,0.00,,SCT029,0.00,VWS V14.01,2013-05-05 08:12:00,
2013-05-05 03:14:00,36.9,36.9,30.00,North,357,0.0,0.0,100,0.00,,CLR,0.00,VWS V14.01,2013-05-05 08:14:00,
2013-05-05 03:16:00,36.9,36.9,30.00,North,357,0.0,0.0,100,0.00,,CLR,0.00,VWS V14.01,2013-05-05 08:16:00,
2013-05-05 03:18:00,36.9,36.9,30.00,North,357,0.0,0.0,100,0.00,,SCT029,0.00,VWS V14.01,2013-05-05 08:18:00,
2013-05-05 03:20:00,36.9,36.9,30.00,North,357,0.0,0.0,100,0.00,,CLR,0.00,VWS V14.01,2013-05-05 08:20:00,
2013-05-05 03:22:00,36.9,36.9,30.00,North,357,0.0,0.0,100,0.00,,CLR,0.00,VWS V14.01,2013-05-05 08:22:00,
2013-05-05 03:23:00,36.9,36.9,30.00,North,357,0.0,0.0,100,0.00,,SCT049,0.00,VWS V14.01,2013-05-05 08:23:00,
2013-05-05 03:24:00,36.9,36.9,30.00,North,357,0.0,0.0,100,0.00,,CLR,0.00,VWS V14.01,2013-05-05 08:24:00,
2013-05-05 03:26:00,36.9,36.9,30.00,North,357,0.0,0.0,100,0.00,,CLR,0.00,VWS V14.01,2013-05-05 08:26:00,
2013-05-05 03:28:00,36.9,36.9,30.00,North,357,0.0,0.0,100,0.00,,SCT049,0.00,VWS V14.01,2013-05-05 08:28:00,
2013-05-05 03:30:00,36.9,36.9,30.00,North,357,0.0,0.0,100,0.00,,CLR,0.00,VWS V14.01,2013-05-05 08:30:00,
2013-05-05 03:32:00,36.9,36.9,30.00,North,357,0.0,0.0,100,0.00,,CLR,0.00,VWS V14.01,2013-05-05 08:32:00,
2013-05-05 03:33:00,36.9,36.9,30.00,WNW,293,0.0,0.0,100,0.00,,SCT049,0.00,VWS V14.01,2013-05-05 08:33:00,
2013-05-05 03:34:00,36.9,36.9,30.00,WNW,293,0.0,0.0,100,0.00,,CLR,0.00,VWS V14.01,2013-05-05 08:34:00,
2013-05-05 03:36:00,36.9,36.9,30.00,WNW,293,0.0,0.0,100,0.00,,CLR,0.00,VWS V14.01,2013-05-05 08:36:00,
2013-05-05 03:38:00,36.7,36.7,30.00,WNW,293,0.0,0.0,100,0.00,,SCT049,0.00,VWS V14.01,2013-05-05 08:38:00,
2013-05-05 03:40:00,36.7,36.7,30.00,WNW,303,0.0,0.0,100,0.00,,CLR,0.00,VWS V14.01,2013-05-05 08:40:00,
2013-05-05 03:42:00,36.7,36.7,30.00,WNW,300,0.0,0.0,100,0.00,,CLR,0.00,VWS V14.01,2013-05-05 08:42:00,
2013-05-05 03:43:00,36.7,36.7,30.00,WNW,286,0.0,0.0,100,0.00,,BKN049,0.00,VWS V14.01,2013-05-05 08:43:00,
2013-05-05 03:44:00,36.7,36.7,30.00,WNW,286,0.0,0.0,100,0.00,,CLR,0.00,VWS V14.01,2013-05-05 08:44:00,
2013-05-05 03:46:00,36.7,36.7,30.00,WNW,286,0.0,0.0,100,0.00,,CLR,0.00,VWS V14.01,2013-05-05 08:46:00,
2013-05-05 03:48:00,36.5,36.5,30.00,WNW,286,0.0,0.0,100,0.00,,BKN049,0.00,VWS V14.01,2013-05-05 08:48:00,
2013-05-05 03:50:00,36.5,36.5,30.00,WNW,286,0.0,0.0,100,0.00,,CLR,0.00,VWS V14.01,2013-05-05 08:50:00,
2013-05-05 03:52:00,36.5,36.5,30.00,WNW,286,0.0,0.0,100,0.00,,CLR,0.00,VWS V14.01,2013-05-05 08:52:00,
2013-05-05 03:53:00,36.5,36.5,30.00,WNW,286,0.0,0.0,100,0.00,,BKN049,0.00,VWS V14.01,2013-05-05 08:53:00,
2013-05-05 03:54:00,36.5,36.5,30.00,WNW,286,0.0,0.0,100,0.00,,CLR,0.00,VWS V14.01,2013-05-05 08:54:00,
2013-05-05 03:56:00,36.5,36.5,30.00,WNW,289,2.8,2.9,100,0.00,,CLR,0.00,VWS V14.01,2013-05-05 08:56:00,
2013-05-05 03:58:00,36.7,36.7,30.00,WNW,291,3.3,4.1,100,0.00,,BKN047,0.00,VWS V14.01,2013-05-05 08:58:00,
2013-05-05 04:00:00,36.7,36.7,30.00,WNW,298,3.9,5.2,100,0.00,,CLR,0.00,VWS V14.01,2013-05-05 09:00:00,
2013-05-05 04:02:00,36.7,36.7,30.00,WNW,297,0.0,4.7,100,0.00,,CLR,0.00,VWS V14.01,2013-05-05 09:02:00,
2013-05-05 04:03:00,36.7,36.7,30.00,WNW,292,3.3,4.7,100,0.00,,BKN047,0.00,VWS V14.01,2013-05-05 09:03:00,
2013-05-05 04:04:00,36.9,36.9,30.00,WNW,287,5.0,5.2,100,0.00,,CLR,0.00,VWS V14.01,2013-05-05 09:04:00,
2013-05-05 04:06:00,36.9,36.9,30.00,WNW,291,3.9,5.2,100,0.00,,CLR,0.00,VWS V14.01,2013-05-05 09:06:00,
2013-05-05 04:08:00,37.0,37.0,30.00,WNW,294,5.0,5.2,100,0.00,,BKN047,0.00,VWS V14.01,2013-05-05 09:08:00,
2013-05-05 04:10:00,37.0,37.0,30.00,West,274,0.0,5.2,100,0.00,,CLR,0.00,VWS V14.01,2013-05-05 09:10:00,
2013-05-05 04:12:00,37.2,37.2,30.00,WNW,289,5.0,5.2,100,0.00,,CLR,0.00,VWS V14.01,2013-05-05 09:12:00,
2013-05-05 04:13:00,37.2,37.2,30.00,WNW,299,0.0,6.4,100,0.00,,BKN047,0.00,VWS V14.01,2013-05-05 09:13:00,
2013-05-05 04:14:00,37.2,37.2,30.00,NW,313,3.3,6.4,100,0.00,,CLR,0.00,VWS V14.01,2013-05-05 09:14:00,
2013-05-05 04:16:00,37.2,37.2,30.00,WNW,295,3.9,6.4,100,0.00,,CLR,0.00,VWS V14.01,2013-05-05 09:16:00,
2013-05-05 04:18:00,37.4,37.4,30.00,West,278,5.0,6.4,100,0.00,,OVC045,0.00,VWS V14.01,2013-05-05 09:18:00,
2013-05-05 04:20:00,37.4,37.4,30.00,NW,315,0.0,0.0,100,0.00,,CLR,0.00,VWS V14.01,2013-05-05 09:20:00,
2013-05-05 04:22:00,37.4,37.4,30.00,WNW,288,0.0,0.0,100,0.00,,CLR,0.00,VWS V14.01,2013-05-05 09:22:00,
2013-05-05 04:23:00,37.4,37.4,30.00,WNW,286,0.0,0.0,100,0.00,,OVC045,0.00,VWS V14.01,2013-05-05 09:23:00,
2013-05-05 04:24:00,37.4,37.4,30.00,WNW,298,3.3,3.5,100,0.00,,CLR,0.00,VWS V14.01,2013-05-05 09:24:00,
2013-05-05 04:26:00,37.2,37.2,30.03,NW,326,0.0,4.7,100,0.00,,CLR,0.00,VWS V14.01,2013-05-05 09:26:00,
2013-05-05 04:28:00,37.2,37.2,30.03,WNW,302,3.3,4.1,100,0.00,,OVC045,0.00,VWS V14.01,2013-05-05 09:28:00,
2013-05-05 04:30:00,37.2,37.2,30.03,NW,305,0.0,5.2,100,0.00,,CLR,0.00,VWS V14.01,2013-05-05 09:30:00,
2013-05-05 04:32:00,37.2,37.2,30.03,NW,318,0.0,0.0,100,0.00,,CLR,0.00,VWS V14.01,2013-05-05 09:32:00,
2013-05-05 04:33:00,37.2,37.2,30.03,WNW,299,3.9,4.1,100,0.00,,OVC045,0.00,VWS V14.01,2013-05-05 09:33:00,
2013-05-05 04:34:00,37.2,37.2,30.03,NW,311,0.0,4.1,100,0.00,,CLR,0.00,VWS V14.01,2013-05-05 09:34:00,
2013-05-05 04:36:00,37.0,37.0,30.03,North,350,0.0,3.5,100,0.00,,CLR,0.00,VWS V14.01,2013-05-05 09:36:00,
2013-05-05 04:38:00,37.0,37.0,30.03,NNW,341,0.0,4.7,100,0.00,,BKN045,0.00,VWS V14.01,2013-05-05 09:38:00,
2013-05-05 04:40:00,37.0,37.0,30.03,NW,315,2.8,3.5,100,0.00,,CLR,0.00,VWS V14.01,2013-05-05 09:40:00,
2013-05-05 04:42:00,37.0,37.0,30.03,North,1,3.9,4.7,100,0.00,,CLR,0.00,VWS V14.01,2013-05-05 09:42:00,
2013-05-05 04:43:00,36.9,36.9,30.03,NNW,333,0.0,4.7,100,0.00,,BKN045,0.00,VWS V14.01,2013-05-05 09:43:00,
2013-05-05 04:44:00,36.9,36.9,30.03,WNW,286,2.8,4.1,100,0.00,,CLR,0.00,VWS V14.01,2013-05-05 09:44:00,
2013-05-05 04:46:00,36.9,36.9,30.03,North,353,0.0,2.9,100,0.00,,CLR,0.00,VWS V14.01,2013-05-05 09:46:00,
2013-05-05 04:48:00,36.9,36.9,30.03,North,353,0.0,0.0,100,0.00,,BKN045,0.00,VWS V14.01,2013-05-05 09:48:00,
2013-05-05 04:50:00,36.9,36.9,30.03,North,10,0.0,2.9,100,0.00,,CLR,0.00,VWS V14.01,2013-05-05 09:50:00,
2013-05-05 04:52:00,36.9,36.9,30.03,NNE,23,2.8,3.5,100,0.00,,CLR,0.00,VWS V14.01,2013-05-05 09:52:00,
2013-05-05 04:53:00,36.7,36.7,30.03,NE,34,5.0,5.2,100,0.00,,BKN045,0.00,VWS V14.01,2013-05-05 09:53:00,
2013-05-05 04:54:00,36.7,36.7,30.03,NNE,14,3.9,5.2,100,0.00,,CLR,0.00,VWS V14.01,2013-05-05 09:54:00,
2013-05-05 04:56:00,36.7,36.7,30.03,NE,34,0.0,3.5,100,0.00,,CLR,0.00,VWS V14.01,2013-05-05 09:56:00,
2013-05-05 04:58:00,36.5,36.5,30.03,NW,315,3.3,4.1,100,0.00,,SCT047,0.00,VWS V14.01,2013-05-05 09:58:00,
2013-05-05 05:00:00,36.5,36.5,30.03,NNE,12,0.0,5.2,100,0.00,,CLR,0.00,VWS V14.01,2013-05-05 10:00:00,
2013-05-05 05:02:00,36.5,36.5,30.03,North,9,3.3,4.7,100,0.00,,CLR,0.00,VWS V14.01,2013-05-05 10:02:00,
2013-05-05 05:03:00,36.5,36.5,30.03,North,357,0.0,4.1,100,0.00,,SCT047,0.00,VWS V14.01,2013-05-05 10:03:00,
2013-05-05 05:04:00,36.5,36.5,30.03,NE,38,0.0,4.1,100,0.00,,CLR,0.00,VWS V14.01,2013-05-05 10:04:00,
2013-05-05 05:06:00,36.5,36.5,30.03,North,0,3.3,4.1,100,0.00,,CLR,0.00,VWS V14.01,2013-05-05 10:06:00,
2013-05-05 05:08:00,36.5,36.5,30.03,NNE,22,0.0,2.9,100,0.00,,SCT047,0.00,VWS V14.01,2013-05-05 10:08:00,
2013-05-05 05:10:00,36.5,36.5,30.03,NNW,348,0.0,0.0,100,0.00,,CLR,0.00,VWS V14.01,2013-05-05 10:10:00,
2013-05-05 05:12:00,36.5,36.5,30.03,WNW,290,0.0,0.0,100,0.00,,CLR,0.00,VWS V14.01,2013-05-05 10:12:00,
2013-05-05 05:13:00,36.5,36.5,30.03,WNW,294,0.0,0.0,100,0.00,,SCT047,0.00,VWS V14.01,2013-05-05 10:13:00,
2013-05-05 05:14:00,36.5,36.5,30.03,WNW,286,0.0,0.0,100,0.00,,CLR,0.00,VWS V14.01,2013-05-05 10:14:00,
2013-05-05 05:16:00,36.5,36.5,30.03,WNW,286,0.0,0.0,100,0.00,,CLR,0.00,VWS V14.01,2013-05-05 10:16:00,
2013-05-05 05:18:00,36.3,36.3,30.03,WNW,287,0.0,0.0,100,0.00,,CLR,0.00,VWS V14.01,2013-05-05 10:18:00,
2013-05-05 05:20:00,36.3,36.3,30.03,NW,304,3.3,3.5,100,0.00,,CLR,0.00,VWS V14.01,2013-05-05 10:20:00,
2013-05-05 05:22:00,36.3,36.3,30.03,WNW,295,3.9,5.2,100,0.00,,CLR,0.00,VWS V14.01,2013-05-05 10:22:00,
2013-05-05 05:23:00,36.3,36.3,30.03,NW,304,4.4,5.2,100,0.00,,CLR,0.00,VWS V14.01,2013-05-05 10:23:00,
2013-05-05 05:24:00,36.3,36.3,30.03,NW,315,3.9,5.8,100,0.00,,CLR,0.00,VWS V14.01,2013-05-05 10:24:00,
2013-05-05 05:26:00,36.3,36.3,30.03,NNE,21,0.0,4.1,100,0.00,,CLR,0.00,VWS V14.01,2013-05-05 10:26:00,
2013-05-05 05:28:00,36.3,36.3,30.03,North,6,0.0,0.0,100,0.00,,CLR,0.00,VWS V14.01,2013-05-05 10:28:00,
2013-05-05 05:30:00,36.1,36.1,30.03,NW,313,2.8,2.9,100,0.00,,CLR,0.00,VWS V14.01,2013-05-05 10:30:00,
2013-05-05 05:32:00,36.1,36.1,30.03,NW,312,0.0,4.1,100,0.00,,CLR,0.00,VWS V14.01,2013-05-05 10:32:00,
2013-05-05 05:33:00,36.1,36.1,30.03,NNW,339,0.0,5.2,100,0.00,,CLR,0.00,VWS V14.01,2013-05-05 10:33:00,
2013-05-05 05:34:00,36.1,36.1,30.03,North,357,2.8,5.2,100,0.00,,CLR,0.00,VWS V14.01,2013-05-05 10:34:00,
2013-05-05 05:36:00,36.1,36.1,30.03,NNE,19,3.9,4.7,100,0.00,,CLR,0.00,VWS V14.01,2013-05-05 10:36:00,
2013-05-05 05:38:00,36.1,36.1,30.03,NW,325,0.0,0.0,100,0.00,,CLR,0.00,VWS V14.01,2013-05-05 10:38:00,
2013-05-05 05:40:00,36.1,36.1,30.03,NNW,342,0.0,4.1,100,0.00,,CLR,0.00,VWS V14.01,2013-05-05 10:40:00,
2013-05-05 05:42:00,36.1,36.1,30.03,WNW,282,0.0,0.0,100,0.00,,CLR,0.00,VWS V14.01,2013-05-05 10:42:00,
2013-05-05 05:43:00,36.1,36.1,30.03,NW,309,0.0,0.0,100,0.00,,CLR,0.00,VWS V14.01,2013-05-05 10:43:00,
2013-05-05 05:44:00,36.1,36.1,30.03,WNW,292,0.0,0.0,100,0.00,,CLR,0.00,VWS V14.01,2013-05-05 10:44:00,
2013-05-05 05:46:00,36.1,36.1,30.03,NW,311,4.4,4.7,100,0.00,,CLR,0.00,VWS V14.01,2013-05-05 10:46:00,
2013-05-05 05:48:00,36.0,36.0,30.03,WNW,295,5.0,5.2,100,0.00,,CLR,0.00,VWS V14.01,2013-05-05 10:48:00,
2013-05-05 05:50:00,36.0,36.0,30.03,NNW,333,0.0,5.2,100,0.00,,CLR,0.00,VWS V14.01,2013-05-05 10:50:00,
2013-05-05 05:52:00,36.0,36.0,30.03,WNW,291,3.3,4.1,100,0.00,,CLR,0.00,VWS V14.01,2013-05-05 10:52:00,
2013-05-05 05:53:00,36.0,36.0,30.03,WNW,290,0.0,3.5,100,0.00,,CLR,0.00,VWS V14.01,2013-05-05 10:53:00,
2013-05-05 05:54:00,36.0,36.0,30.03,WNW,290,0.0,3.5,100,0.00,,CLR,0.00,VWS V14.01,2013-05-05 10:54:00,
2013-05-05 05:56:00,36.0,36.0,30.03,WNW,290,0.0,0.0,100,0.00,,CLR,0.00,VWS V14.01,2013-05-05 10:56:00,
2013-05-05 05:58:00,35.8,35.8,30.03,WNW,290,0.0,0.0,100,0.00,,BKN004,0.00,VWS V14.01,2013-05-05 10:58:00,
2013-05-05 06:00:00,35.8,35.8,30.03,North,357,3.3,7.6,100,0.00,,CLR,0.00,VWS V14.01,2013-05-05 11:00:00,
2013-05-05 06:02:00,36.0,36.0,30.03,WNW,299,3.3,4.1,100,0.00,,CLR,0.00,VWS V14.01,2013-05-05 11:02:00,
2013-05-05 06:03:00,36.0,36.0,30.03,WNW,295,2.8,4.1,100,0.00,,BKN004,0.00,VWS V14.01,2013-05-05 11:03:00,
2013-05-05 06:04:00,36.0,36.0,30.03,WNW,295,2.8,4.1,100,0.00,,CLR,0.00,VWS V14.01,2013-05-05 11:04:00,
2013-05-05 06:06:00,36.0,36.0,30.03,WNW,295,0.0,0.0,100,0.00,,CLR,0.00,VWS V14.01,2013-05-05 11:06:00,
2013-05-05 06:08:00,35.8,35.8,30.03,WNW,295,3.3,4.7,100,0.00,,CLR,0.00,VWS V14.01,2013-05-05 11:08:00,
2013-05-05 06:09:00,35.8,35.8,30.03,WNW,293,3.3,4.7,100,0.00,,BKN004,0.00,VWS V14.01,2013-05-05 11:09:00,
2013-05-05 06:10:00,35.8,35.8,30.03,WNW,287,3.3,5.2,100,0.00,,CLR,0.00,VWS V14.01,2013-05-05 11:10:00,
2013-05-05 06:12:00,35.8,35.8,30.03,WNW,294,0.0,5.2,100,0.00,,CLR,0.00,VWS V14.01,2013-05-05 11:12:00,
2013-05-05 06:14:00,35.8,35.8,30.03,WNW,293,3.9,4.7,100,0.00,,BKN004,0.00,VWS V14.01,2013-05-05 11:14:00,
2013-05-05 06:16:00,35.6,35.6,30.03,West,280,0.0,4.1,100,0.00,,CLR,0.00,VWS V14.01,2013-05-05 11:16:00,
2013-05-05 06:18:00,35.6,35.6,30.03,West,281,0.0,0.0,100,0.00,,CLR,0.00,VWS V14.01,2013-05-05 11:18:00,
2013-05-05 06:19:00,35.6,35.6,30.03,West,281,0.0,0.0,100,0.00,,SCT004,0.00,VWS V14.01,2013-05-05 11:19:00,
2013-05-05 06:20:00,35.6,35.6,30.03,WNW,286,0.0,0.0,100,0.00,,CLR,0.00,VWS V14.01,2013-05-05 11:20:00,
2013-05-05 06:22:00,35.6,35.6,30.03,WNW,298,0.0,3.5,100,0.00,,CLR,0.00,VWS V14.01,2013-05-05 11:22:00,
2013-05-05 06:24:00,35.6,35.6,30.03,West,260,5.0,5.2,100,0.00,,SCT004,0.00,VWS V14.01,2013-05-05 11:24:00,
2013-05-05 06:26:00,35.6,35.6,30.03,WNW,300,0.0,6.4,100,0.00,,CLR,0.00,VWS V14.01,2013-05-05 11:26:00,
2013-05-05 06:28:00,35.6,35.6,30.03,WNW,285,0.0,0.0,100,0.00,,CLR,0.00,VWS V14.01,2013-05-05 11:28:00,
2013-05-05 06:29:00,35.6,35.6,30.03,WNW,284,0.0,0.0,100,0.00,,SCT004,0.00,VWS V14.01,2013-05-05 11:29:00,
2013-05-05 06:30:00,35.6,35.6,30.03,West,277,0.0,0.0,100,0.00,,CLR,0.00,VWS V14.01,2013-05-05 11:30:00,
2013-05-05 06:32:00,35.6,35.6,30.03,WNW,292,0.0,4.7,100,0.00,,CLR,0.00,VWS V14.01,2013-05-05 11:32:00,
2013-05-05 06:34:00,35.8,35.8,30.03,WNW,292,0.0,0.0,100,0.00,,SCT004,0.00,VWS V14.01,2013-05-05 11:34:00,
2013-05-05 06:36:00,35.8,35.8,30.03,North,3,4.4,4.7,100,0.00,,CLR,0.00,VWS V14.01,2013-05-05 11:36:00,
2013-05-05 06:38:00,35.8,35.8,30.03,NNW,330,5.0,5.2,100,0.00,,CLR,0.00,VWS V14.01,2013-05-05 11:38:00,
2013-05-05 06:39:00,35.8,35.8,30.03,North,357,0.0,5.2,100,0.00,,CLR,0.00,VWS V14.01,2013-05-05 11:39:00,
2013-05-05 06:40:00,35.8,35.8,30.03,NW,310,4.4,7.6,100,0.00,,CLR,0.00,VWS V14.01,2013-05-05 11:40:00,
2013-05-05 06:42:00,35.8,35.8,30.03,NNW,345,0.0,4.7,100,0.00,,CLR,0.00,VWS V14.01,2013-05-05 11:42:00,
2013-05-05 06:44:00,35.8,35.8,30.03,NNW,335,0.0,0.0,100,0.00,,CLR,0.00,VWS V14.01,2013-05-05 11:44:00,
2013-05-05 06:46:00,35.8,35.8,30.03,NNW,337,7.2,7.6,100,0.00,,CLR,0.00,VWS V14.01,2013-05-05 11:46:00,
2013-05-05 06:48:00,35.8,35.8,30.03,NNW,336,0.0,7.6,100,0.00,,CLR,0.00,VWS V14.01,2013-05-05 11:48:00,
2013-05-05 06:49:00,35.8,35.8,30.03,NNE,33,3.3,4.1,100,0.00,,CLR,0.00,VWS V14.01,2013-05-05 11:49:00,
2013-05-05 06:50:00,35.8,35.8,30.03,NNE,33,0.0,4.1,100,0.00,,CLR,0.00,VWS V14.01,2013-05-05 11:50:00,
2013-05-05 06:52:00,35.8,35.8,30.03,NNE,33,0.0,0.0,100,0.00,,CLR,0.00,VWS V14.01,2013-05-05 11:52:00,
2013-05-05 06:54:00,35.8,35.8,30.03,NNE,22,0.0,2.9,100,0.00,,CLR,0.00,VWS V14.01,2013-05-05 11:54:00,
2013-05-05 06:56:00,35.8,35.8,30.03,North,0,5.0,5.2,100,0.00,,CLR,0.00,VWS V14.01,2013-05-05 11:56:00,
2013-05-05 06:58:00,35.8,35.8,30.03,NNE,20,3.3,5.8,100,0.00,,CLR,0.00,VWS V14.01,2013-05-05 11:58:00,
2013-05-05 06:59:00,35.8,35.8,30.03,North,11,0.0,5.8,100,0.00,,CLR,0.00,VWS V14.01,2013-05-05 11:59:00,
2013-05-05 07:00:00,35.8,35.8,30.03,NNE,13,0.0,4.1,100,0.00,,CLR,0.00,VWS V14.01,2013-05-05 12:00:00,
2013-05-05 07:02:00,35.8,35.8,30.03,NNE,22,2.8,4.1,100,0.00,,CLR,0.00,VWS V14.01,2013-05-05 12:02:00,
2013-05-05 07:04:00,36.0,36.0,30.03,North,1,3.9,5.2,100,0.00,,CLR,0.00,VWS V14.01,2013-05-05 12:04:00,
2013-05-05 07:06:00,36.0,36.0,30.03,NNE,14,3.9,4.7,100,0.00,,CLR,0.00,VWS V14.01,2013-05-05 12:06:00,
2013-05-05 07:08:00,36.0,36.0,30.03,NNE,16,0.0,4.1,100,0.00,,CLR,0.00,VWS V14.01,2013-05-05 12:08:00,
2013-05-05 07:09:00,36.0,36.0,30.03,NNE,16,0.0,0.0,100,0.00,,CLR,0.00,VWS V14.01,2013-05-05 12:09:00,
2013-05-05 07:10:00,36.0,36.0,30.03,NNE,16,0.0,0.0,100,0.00,,CLR,0.00,VWS V14.01,2013-05-05 12:10:00,
2013-05-05 07:12:00,36.1,36.1,30.06,NNE,16,0.0,0.0,100,0.00,,CLR,0.00,VWS V14.01,2013-05-05 12:12:00,
2013-05-05 07:14:00,36.1,36.1,30.06,NE,37,4.4,6.4,100,0.00,,CLR,0.00,VWS V14.01,2013-05-05 12:14:00,
2013-05-05 07:16:00,36.1,36.1,30.06,NE,49,0.0,7.0,100,0.00,,CLR,0.00,VWS V14.01,2013-05-05 12:16:00,
2013-05-05 07:18:00,36.3,36.3,30.06,NE,44,0.0,0.0,100,0.00,,CLR,0.00,VWS V14.01,2013-05-05 12:18:00,
2013-05-05 07:19:00,36.3,36.3,30.06,NE,41,3.3,5.2,100,0.00,,CLR,0.00,VWS V14.01,2013-05-05 12:19:00,
2013-05-05 07:20:00,36.3,36.3,30.06,NNE,24,4.4,5.2,100,0.00,,CLR,0.00,VWS V14.01,2013-05-05 12:20:00,
2013-05-05 07:22:00,36.3,36.3,30.06,NE,41,4.4,7.0,100,0.00,,CLR,0.00,VWS V14.01,2013-05-05 12:22:00,
2013-05-05 07:24:00,36.3,36.3,30.06,NNE,16,3.3,6.4,100,0.00,,CLR,0.00,VWS V14.01,2013-05-05 12:24:00,
2013-05-05 07:26:00,36.3,36.3,30.06,North,10,4.4,4.7,100,0.00,,CLR,0.00,VWS V14.01,2013-05-05 12:26:00,
2013-05-05 07:28:00,36.5,36.5,30.06,North,2,3.3,4.7,100,0.00,,CLR,0.00,VWS V14.01,2013-05-05 12:28:00,
2013-05-05 07:29:00,36.5,36.5,30.06,North,357,0.0,4.7,100,0.00,,CLR,0.00,VWS V14.01,2013-05-05 12:29:00,
2013-05-05 07:30:00,36.7,36.7,30.06,North,353,0.0,3.5,100,0.00,,CLR,0.00,VWS V14.01,2013-05-05 12:30:00,
2013-05-05 07:32:00,36.7,36.7,30.06,NNE,16,3.3,4.7,100,0.00,,CLR,0.00,VWS V14.01,2013-05-05 12:32:00,
2013-05-05 07:34:00,36.9,36.9,30.06,North,357,0.0,4.1,100,0.00,,CLR,0.00,VWS V14.01,2013-05-05 12:34:00,
2013-05-05 07:36:00,36.9,36.9,30.06,NNE,33,4.4,6.4,100,0.00,,CLR,0.00,VWS V14.01,2013-05-05 12:36:00,
2013-05-05 07:38:00,36.9,36.9,30.06,NNE,32,0.0,4.7,100,0.00,,CLR,0.00,VWS V14.01,2013-05-05 12:38:00,
2013-05-05 07:39:00,37.0,37.0,30.06,NNE,33,5.0,5.2,100,0.00,,CLR,0.00,VWS V14.01,2013-05-05 12:39:00,
2013-05-05 07:40:00,37.0,37.0,30.06,North,357,5.0,6.4,100,0.00,,CLR,0.00,VWS V14.01,2013-05-05 12:40:00,
2013-05-05 07:42:00,37.0,37.0,30.06,North,357,3.3,6.4,100,0.00,,CLR,0.00,VWS V14.01,2013-05-05 12:42:00,
2013-05-05 07:44:00,37.0,37.0,30.06,NNE,19,7.2,7.6,100,0.00,,CLR,0.00,VWS V14.01,2013-05-05 12:44:00,
2013-05-05 07:46:00,37.2,37.2,30.06,NE,46,3.3,7.6,100,0.00,,CLR,0.00,VWS V14.01,2013-05-05 12:46:00,
2013-05-05 07:48:00,37.2,37.2,30.06,North,9,6.7,7.0,100,0.00,,CLR,0.00,VWS V14.01,2013-05-05 12:48:00,
2013-05-05 07:49:00,37.4,37.4,30.06,NE,42,2.8,7.0,100,0.00,,CLR,0.00,VWS V14.01,2013-05-05 12:49:00,
2013-05-05 07:50:00,37.4,37.4,30.06,NNE,31,3.3,7.0,100,0.00,,CLR,0.00,VWS V14.01,2013-05-05 12:50:00,
2013-05-05 07:52:00,37.6,37.6,30.06,NNE,32,3.3,4.7,100,0.00,,CLR,0.00,VWS V14.01,2013-05-05 12:52:00,
2013-05-05 07:54:00,37.6,37.6,30.06,North,9,3.3,7.0,100,0.00,,CLR,0.00,VWS V14.01,2013-05-05 12:54:00,
2013-05-05 07:56:00,37.8,37.8,30.06,North,7,3.3,7.0,100,0.00,,CLR,0.00,VWS V14.01,2013-05-05 12:56:00,
2013-05-05 07:58:00,38.1,38.1,30.06,NE,37,0.0,5.2,100,0.00,,CLR,0.00,VWS V14.01,2013-05-05 12:58:00,
2013-05-05 07:59:00,38.1,38.1,30.06,NNE,29,5.0,6.4,100,0.00,,FEW006,0.00,VWS V14.01,2013-05-05 12:59:00,
2013-05-05 08:00:00,38.1,38.1,30.06,NNE,21,7.2,7.6,100,0.00,,CLR,0.00,VWS V14.01,2013-05-05 13:00:00,
2013-05-05 08:02:00,38.5,38.5,30.06,NNE,26,4.4,7.6,100,0.00,,CLR,0.00,VWS V14.01,2013-05-05 13:02:00,
2013-05-05 08:04:00,38.8,38.8,30.06,NNE,30,4.4,7.6,100,0.00,,FEW006,0.00,VWS V14.01,2013-05-05 13:04:00,
2013-05-05 08:06:00,39.0,39.0,30.06,NW,322,4.4,8.1,100,0.00,,CLR,0.00,VWS V14.01,2013-05-05 13:06:00,
2013-05-05 08:08:00,39.2,39.2,30.06,NNE,15,2.8,4.7,100,0.00,,CLR,0.00,VWS V14.01,2013-05-05 13:08:00,
2013-05-05 08:09:00,39.2,39.2,30.06,NNE,32,0.0,3.5,100,0.00,,FEW006,0.00,VWS V14.01,2013-05-05 13:09:00,
2013-05-05 08:10:00,39.4,39.4,30.06,North,353,0.0,3.5,100,0.00,,CLR,0.00,VWS V14.01,2013-05-05 13:10:00,
2013-05-05 08:12:00,39.4,39.4,30.06,NNE,28,3.3,7.6,100,0.00,,CLR,0.00,VWS V14.01,2013-05-05 13:12:00,
2013-05-05 08:14:00,39.7,39.7,30.06,NNE,23,6.7,7.6,100,0.00,,FEW006,0.00,VWS V14.01,2013-05-05 13:14:00,
2013-05-05 08:16:00,39.9,39.9,30.06,North,8,3.3,10.5,100,0.00,,CLR,0.00,VWS V14.01,2013-05-05 13:16:00,
2013-05-05 08:18:00,40.1,40.1,30.06,North,11,7.8,9.9,100,0.00,,CLR,0.00,VWS V14.01,2013-05-05 13:18:00,
2013-05-05 08:20:00,40.3,40.3,30.06,North,0,5.0,9.9,100,0.00,,CLR,0.00,VWS V14.01,2013-05-05 13:20:00,
2013-05-05 08:22:00,40.3,40.3,30.06,NNW,330,0.0,7.0,100,0.00,,CLR,0.00,VWS V14.01,2013-05-05 13:22:00,
2013-05-05 08:24:00,40.5,40.5,30.06,ENE,58,0.0,2.9,100,0.00,,CLR,0.00,VWS V14.01,2013-05-05 13:24:00,
2013-05-05 08:25:00,40.5,40.5,30.06,ENE,58,0.0,2.9,100,0.00,,CLR,0.00,VWS V14.01,2013-05-05 13:25:00,
2013-05-05 08:26:00,40.5,40.5,30.06,ENE,76,5.0,5.2,100,0.00,,CLR,0.00,VWS V14.01,2013-05-05 13:26:00,
2013-05-05 08:28:00,40.6,40.6,30.06,North,10,6.1,10.5,100,0.00,,CLR,0.00,VWS V14.01,2013-05-05 13:28:00,
2013-05-05 08:30:00,40.6,40.6,30.06,NE,36,7.8,8.1,100,0.00,,CLR,0.00,VWS V14.01,2013-05-05 13:30:00,
2013-05-05 08:32:00,41.0,41.0,30.06,NNE,31,7.8,8.1,100,0.00,,CLR,0.00,VWS V14.01,2013-05-05 13:32:00,
2013-05-05 08:34:00,41.2,41.2,30.06,NNE,15,5.0,8.1,100,0.00,,CLR,0.00,VWS V14.01,2013-05-05 13:34:00,
2013-05-05 08:35:00,41.2,41.2,30.06,NNW,343,3.9,7.0,100,0.00,,CLR,0.00,VWS V14.01,2013-05-05 13:35:00,
2013-05-05 08:36:00,41.5,41.5,30.06,North,6,0.0,5.2,100,0.00,,CLR,0.00,VWS V14.01,2013-05-05 13:36:00,
2013-05-05 08:38:00,41.7,41.7,30.06,WNW,298,4.4,7.0,100,0.00,,CLR,0.00,VWS V14.01,2013-05-05 13:38:00,
2013-05-05 08:40:00,42.1,42.1,30.06,NW,306,7.2,10.8,100,0.00,,CLR,0.00,VWS V14.01,2013-05-05 13:40:00,
2013-05-05 08:42:00,42.3,42.3,30.09,NNE,22,4.4,8.1,100,0.00,,CLR,0.00,VWS V14.01,2013-05-05 13:42:00,
2013-05-05 08:44:00,42.3,42.3,30.09,NW,307,6.7,7.0,100,0.00,,CLR,0.00,VWS V14.01,2013-05-05 13:44:00,
2013-05-05 08:45:00,42.4,42.4,30.09,NNW,332,4.4,7.6,100,0.00,,CLR,0.00,VWS V14.01,2013-05-05 13:45:00,
2013-05-05 08:46:00,42.4,42.4,30.09,NNE,13,0.0,7.6,100,0.00,,CLR,0.00,VWS V14.01,2013-05-05 13:46:00,
2013-05-05 08:48:00,42.6,42.6,30.09,WNW,285,0.0,8.1,100,0.00,,CLR,0.00,VWS V14.01,2013-05-05 13:48:00,
2013-05-05 08:50:00,43.0,43.0,30.09,NNW,348,3.3,7.0,100,0.00,,CLR,0.00,VWS V14.01,2013-05-05 13:50:00,
2013-05-05 08:52:00,43.2,43.2,30.09,North,353,3.9,6.4,100,0.00,,CLR,0.00,VWS V14.01,2013-05-05 13:52:00,
2013-05-05 08:54:00,43.3,43.3,30.09,NNE,30,2.8,8.1,100,0.00,,CLR,0.00,VWS V14.01,2013-05-05 13:54:00,
2013-05-05 08:55:00,43.5,43.5,30.09,NW,312,5.0,5.2,100,0.00,,CLR,0.00,VWS V14.01,2013-05-05 13:55:00,
2013-05-05 08:56:00,43.5,43.5,30.06,WNW,300,5.0,8.1,100,0.00,,CLR,0.00,VWS V14.01,2013-05-05 13:56:00,
2013-05-05 08:58:00,43.9,43.9,30.06,NW,316,3.3,7.6,100,0.00,,CLR,0.00,VWS V14.01,2013-05-05 13:58:00,
2013-05-05 09:00:00,44.2,44.2,30.06,NNW,344,0.0,5.2,100,0.00,,CLR,0.00,VWS V14.01,2013-05-05 14:00:00,
2013-05-05 09:02:00,44.6,44.6,30.06,WNW,287,0.0,0.0,100,0.00,,CLR,0.00,VWS V14.01,2013-05-05 14:02:00,
2013-05-05 09:04:00,45.0,45.0,30.06,NNE,24,3.3,4.1,100,0.00,,CLR,0.00,VWS V14.01,2013-05-05 14:04:00,
2013-05-05 09:05:00,45.1,45.1,30.06,NE,41,4.4,4.7,100,0.00,,CLR,0.00,VWS V14.01,2013-05-05 14:05:00,
2013-05-05 09:06:00,45.3,45.3,30.06,NNW,331,7.2,7.6,100,0.00,,CLR,0.00,VWS V14.01,2013-05-05 14:06:00,
2013-05-05 09:08:00,45.5,45.5,30.06,NW,322,0.0,7.6,100,0.00,,CLR,0.00,VWS V14.01,2013-05-05 14:08:00,
2013-05-05 09:10:00,45.9,45.9,30.09,NNE,30,7.2,7.6,100,0.00,,CLR,0.00,VWS V14.01,2013-05-05 14:10:00,
2013-05-05 09:12:00,46.0,46.0,30.09,North,357,7.8,12.5,100,0.00,,CLR,0.00,VWS V14.01,2013-05-05 14:12:00,
2013-05-05 09:14:00,46.4,46.4,30.09,NW,324,3.9,10.5,100,0.00,,CLR,0.00,VWS V14.01,2013-05-05 14:14:00,
2013-05-05 09:15:00,46.4,46.4,30.09,NNW,337,7.2,10.5,100,0.00,,CLR,0.00,VWS V14.01,2013-05-05 14:15:00,
2013-05-05 09:16:00,46.4,46.4,30.09,WNW,283,3.9,8.7,100,0.00,,CLR,0.00,VWS V14.01,2013-05-05 14:16:00,
2013-05-05 09:18:00,46.4,46.4,30.09,North,6,3.9,8.1,100,0.00,,CLR,0.00,VWS V14.01,2013-05-05 14:18:00,
2013-05-05 09:20:00,46.6,46.6,30.09,North,8,0.0,4.1,100,0.00,,CLR,0.00,VWS V14.01,2013-05-05 14:20:00,
2013-05-05 09:22:00,46.8,46.8,30.09,NNE,18,5.0,5.2,100,0.00,,CLR,0.00,VWS V14.01,2013-05-05 14:22:00,
2013-05-05 09:24:00,46.9,46.9,30.09,North,6,4.4,7.0,100,0.00,,CLR,0.00,VWS V14.01,2013-05-05 14:24:00,
2013-05-05 09:25:00,47.1,47.1,30.09,North,5,3.9,9.9,100,0.00,,CLR,0.00,VWS V14.01,2013-05-05 14:25:00,
2013-05-05 09:26:00,47.1,47.1,30.09,NE,52,7.8,9.9,100,0.00,,CLR,0.00,VWS V14.01,2013-05-05 14:26:00,
2013-05-05 09:28:00,47.5,47.5,30.09,WNW,300,0.0,9.9,100,0.00,,CLR,0.00,VWS V14.01,2013-05-05 14:28:00,
2013-05-05 09:30:00,47.7,47.7,30.09,NW,309,3.9,7.6,100,0.00,,CLR,0.00,VWS V14.01,2013-05-05 14:30:00,
2013-05-05 09:32:00,47.7,47.7,30.09,ENE,68,3.9,10.8,100,0.00,,CLR,0.00,VWS V14.01,2013-05-05 14:32:00,
2013-05-05 09:34:00,47.8,47.8,30.09,NNE,26,5.0,9.3,100,0.00,,CLR,0.00,VWS V14.01,2013-05-05 14:34:00,
2013-05-05 09:35:00,48.0,48.0,30.09,NE,35,9.4,11.9,100,0.00,,CLR,0.00,VWS V14.01,2013-05-05 14:35:00,
2013-05-05 09:36:00,48.0,48.0,30.09,NNE,19,7.8,11.9,100,0.00,,CLR,0.00,VWS V14.01,2013-05-05 14:36:00,
2013-05-05 09:38:00,48.4,48.4,30.09,NE,54,7.2,8.1,100,0.00,,CLR,0.00,VWS V14.01,2013-05-05 14:38:00,
2013-05-05 09:40:00,48.7,48.7,30.09,NE,50,6.1,13.1,100,0.00,,FEW022,0.00,VWS V14.01,2013-05-05 14:40:00,
2013-05-05 09:42:00,48.7,48.7,30.09,NNE,22,7.8,13.1,100,0.00,,CLR,0.00,VWS V14.01,2013-05-05 14:42:00,
2013-05-05 09:44:00,48.9,48.9,30.09,North,4,8.3,11.3,100,0.00,,CLR,0.00,VWS V14.01,2013-05-05 14:44:00,
2013-05-05 09:45:00,48.9,48.9,30.09,North,6,5.0,11.3,100,0.00,,FEW022,0.00,VWS V14.01,2013-05-05 14:45:00,
2013-05-05 09:46:00,48.9,48.9,30.09,NE,45,0.0,10.8,100,0.00,,CLR,0.00,VWS V14.01,2013-05-05 14:46:00,
2013-05-05 09:48:00,49.1,49.1,30.09,North,357,0.0,10.8,100,0.00,,CLR,0.00,VWS V14.01,2013-05-05 14:48:00,
2013-05-05 09:50:00,49.3,49.3,30.09,NNE,15,3.9,13.1,100,0.00,,FEW022,0.00,VWS V14.01,2013-05-05 14:50:00,
2013-05-05 09:52:00,49.3,49.3,30.09,NNE,32,7.2,7.6,100,0.00,,CLR,0.00,VWS V14.01,2013-05-05 14:52:00,
2013-05-05 09:54:00,49.3,49.0,30.09,WNW,289,7.2,7.6,99,0.00,,CLR,0.00,VWS V14.01,2013-05-05 14:54:00,
2013-05-05 09:56:00,49.1,48.1,30.09,ENE,59,6.7,7.6,96,0.00,,FEW022,0.00,VWS V14.01,2013-05-05 14:56:00,
2013-05-05 09:58:00,49.3,47.9,30.09,North,357,10.0,10.8,95,0.00,,CLR,0.00,VWS V14.01,2013-05-05 14:58:00,
2013-05-05 10:00:00,49.3,47.2,30.09,NNE,18,10.3,13.1,92,0.00,,CLR,0.00,VWS V14.01,2013-05-05 15:00:00,
2013-05-05 10:01:00,49.5,47.3,30.09,NNE,28,12.5,13.7,92,0.00,,FEW022,0.00,VWS V14.01,2013-05-05 15:01:00,
2013-05-05 10:02:00,49.5,46.6,30.09,NNE,23,10.3,13.7,90,0.00,,CLR,0.00,VWS V14.01,2013-05-05 15:02:00,
2013-05-05 10:04:00,49.5,45.0,30.09,NNW,338,5.0,13.1,84,0.00,,CLR,0.00,VWS V14.01,2013-05-05 15:04:00,
2013-05-05 10:06:00,49.6,44.8,30.09,North,357,4.4,10.8,83,0.00,,FEW022,0.00,VWS V14.01,2013-05-05 15:06:00,
2013-05-05 10:08:00,49.5,44.2,30.09,NE,36,10.3,10.8,82,0.00,,CLR,0.00,VWS V14.01,2013-05-05 15:08:00,
2013-05-05 10:10:00,49.6,43.0,30.09,North,357,6.7,11.3,78,0.00,,CLR,0.00,VWS V14.01,2013-05-05 15:10:00,
2013-05-05 10:11:00,49.8,43.2,30.09,NNE,24,6.7,11.3,78,0.00,,FEW022,0.00,VWS V14.01,2013-05-05 15:11:00,
2013-05-05 10:12:00,50.0,42.9,30.09,NNE,30,6.1,11.3,77,0.00,,CLR,0.00,VWS V14.01,2013-05-05 15:12:00,
2013-05-05 10:14:00,50.2,42.2,30.09,North,1,9.4,13.1,74,0.00,,CLR,0.00,VWS V14.01,2013-05-05 15:14:00,
2013-05-05 10:16:00,50.5,42.1,30.09,NNE,17,3.3,10.8,73,0.00,,FEW022,0.00,VWS V14.01,2013-05-05 15:16:00,
2013-05-05 10:18:00,50.9,41.5,30.09,ENE,62,6.7,7.0,70,0.00,,CLR,0.00,VWS V14.01,2013-05-05 15:18:00,
2013-05-05 10:20:00,51.1,42.1,30.09,NNE,18,4.4,7.6,71,0.00,,CLR,0.00,VWS V14.01,2013-05-05 15:20:00,
2013-05-05 10:21:00,51.3,41.8,30.09,NE,35,6.7,9.3,70,0.00,,SCT025,0.00,VWS V14.01,2013-05-05 15:21:00,
2013-05-05 10:22:00,51.3,42.3,30.09,NNE,18,3.3,9.3,71,0.00,,CLR,0.00,VWS V14.01,2013-05-05 15:22:00,
2013-05-05 10:24:00,51.6,42.2,30.09,NNE,25,10.8,13.7,70,0.00,,CLR,0.00,VWS V14.01,2013-05-05 15:24:00,
2013-05-05 10:26:00,51.6,42.2,30.09,NW,307,3.9,9.9,70,0.00,,SCT025,0.00,VWS V14.01,2013-05-05 15:26:00,
2013-05-05 10:28:00,51.6,42.2,30.09,North,7,6.7,7.0,70,0.00,,CLR,0.00,VWS V14.01,2013-05-05 15:28:00,
2013-05-05 10:30:00,51.3,41.3,30.09,NNE,20,5.0,8.1,69,0.00,,CLR,0.00,VWS V14.01,2013-05-05 15:30:00,
2013-05-05 10:31:00,51.3,41.3,30.09,ENE,70,6.7,8.1,69,0.00,,SCT025,0.00,VWS V14.01,2013-05-05 15:31:00,
2013-05-05 10:32:00,51.1,41.1,30.09,North,357,7.2,7.6,69,0.00,,CLR,0.00,VWS V14.01,2013-05-05 15:32:00,
2013-05-05 10:34:00,50.9,41.5,30.09,North,8,3.9,7.6,70,0.00,,CLR,0.00,VWS V14.01,2013-05-05 15:34:00,
2013-05-05 10:36:00,51.1,41.6,30.09,NNE,32,6.7,7.6,70,0.00,,SCT025,0.00,VWS V14.01,2013-05-05 15:36:00,
2013-05-05 10:38:00,51.4,42.0,30.09,North,353,3.3,8.1,70,0.00,,CLR,0.00,VWS V14.01,2013-05-05 15:38:00,
2013-05-05 10:40:00,51.6,41.7,30.09,NE,39,7.2,10.8,69,0.00,,CLR,0.00,VWS V14.01,2013-05-05 15:40:00,
2013-05-05 10:42:00,51.8,41.3,30.09,North,353,7.2,11.3,67,0.00,,BKN036,0.00,VWS V14.01,2013-05-05 15:42:00,
2013-05-05 10:44:00,52.0,41.0,30.09,NW,305,7.2,8.1,66,0.00,,CLR,0.00,VWS V14.01,2013-05-05 15:44:00,
2013-05-05 10:46:00,52.0,39.9,30.09,West,278,5.5,9.3,63,0.00,,CLR,0.00,VWS V14.01,2013-05-05 15:46:00,
2013-05-05 10:47:00,51.8,39.8,30.09,WNW,286,6.7,9.3,63,0.00,,BKN036,0.00,VWS V14.01,2013-05-05 15:47:00,
2013-05-05 10:48:00,51.6,40.1,30.09,NW,321,0.0,7.6,65,0.00,,CLR,0.00,VWS V14.01,2013-05-05 15:48:00,
2013-05-05 10:50:00,51.4,40.0,30.09,NW,305,4.4,10.5,65,0.00,,CLR,0.00,VWS V14.01,2013-05-05 15:50:00,
2013-05-05 10:52:00,51.1,39.6,30.09,WNW,301,11.9,12.5,65,0.00,,BKN036,0.00,VWS V14.01,2013-05-05 15:52:00,
2013-05-05 10:54:00,50.7,39.3,30.09,ENE,59,0.0,13.1,65,0.00,,CLR,0.00,VWS V14.01,2013-05-05 15:54:00,
2013-05-05 10:56:00,50.4,38.9,30.09,West,272,9.4,9.9,65,0.00,,CLR,0.00,VWS V14.01,2013-05-05 15:56:00,
2013-05-05 10:57:00,50.2,39.3,30.09,NW,306,6.7,9.9,66,0.00,,BKN036,0.00,VWS V14.01,2013-05-05 15:57:00,
2013-05-05 10:58:00,50.2,39.3,30.09,ENE,63,5.5,9.9,66,0.00,,CLR,0.00,VWS V14.01,2013-05-05 15:58:00,
2013-05-05 11:00:00,49.8,38.9,30.09,North,357,3.3,11.3,66,0.00,,CLR,0.00,VWS V14.01,2013-05-05 16:00:00,
2013-05-05 11:02:00,50.0,39.1,30.09,NE,38,3.9,8.1,66,0.00,,BKN036,0.00,VWS V14.01,2013-05-05 16:02:00,
2013-05-05 11:04:00,50.2,39.8,30.09,NNE,28,5.0,5.2,67,0.00,,CLR,0.00,VWS V14.01,2013-05-05 16:04:00,
2013-05-05 11:06:00,50.9,41.0,30.09,NNE,28,5.0,15.4,69,0.00,,CLR,0.00,VWS V14.01,2013-05-05 16:06:00,
2013-05-05 11:07:00,51.1,41.1,30.09,NE,40,5.5,14.2,69,0.00,,BKN036,0.00,VWS V14.01,2013-05-05 16:07:00,
2013-05-05 11:08:00,51.4,41.5,30.09,ENE,72,4.4,10.5,69,0.00,,CLR,0.00,VWS V14.01,2013-05-05 16:08:00,
2013-05-05 11:10:00,51.8,41.8,30.09,WNW,284,5.0,7.0,69,0.00,,CLR,0.00,VWS V14.01,2013-05-05 16:10:00,
2013-05-05 11:12:00,52.2,42.2,30.09,NNW,331,0.0,7.0,69,0.00,,BKN036,0.00,VWS V14.01,2013-05-05 16:12:00,
2013-05-05 11:14:00,52.5,42.5,30.09,North,5,6.7,7.0,69,0.00,,CLR,0.00,VWS V14.01,2013-05-05 16:14:00,
2013-05-05 11:16:00,52.9,42.9,30.09,NNW,341,3.9,7.0,69,0.00,,CLR,0.00,VWS V14.01,2013-05-05 16:16:00,
2013-05-05 11:17:00,53.1,42.5,30.09,North,349,6.1,8.1,67,0.00,,BKN036,0.00,VWS V14.01,2013-05-05 16:17:00,
2013-05-05 11:18:00,53.1,42.0,30.09,NE,37,6.7,8.1,66,0.00,,CLR,0.00,VWS V14.01,2013-05-05 16:18:00,
2013-05-05 11:20:00,53.1,41.0,30.09,NNE,30,9.4,14.2,63,0.00,,CLR,0.00,VWS V14.01,2013-05-05 16:20:00,
2013-05-05 11:22:00,53.2,41.1,30.09,NNE,14,3.9,9.9,63,0.00,,SCT028,0.00,VWS V14.01,2013-05-05 16:22:00,
2013-05-05 11:24:00,53.4,41.3,30.09,WSW,253,5.0,7.6,63,0.00,,CLR,0.00,VWS V14.01,2013-05-05 16:24:00,
2013-05-05 11:26:00,53.4,40.8,30.09,WNW,289,11.9,12.5,62,0.00,,CLR,0.00,VWS V14.01,2013-05-05 16:26:00,
2013-05-05 11:27:00,53.4,40.8,30.09,NE,44,4.4,12.5,62,0.00,,SCT028,0.00,VWS V14.01,2013-05-05 16:27:00,
2013-05-05 11:28:00,53.4,40.8,30.09,West,272,5.0,11.3,62,0.00,,CLR,0.00,VWS V14.01,2013-05-05 16:28:00,
2013-05-05 11:30:00,53.6,40.9,30.09,West,277,4.4,8.1,62,0.00,,CLR,0.00,VWS V14.01,2013-05-05 16:30:00,
2013-05-05 11:32:00,53.8,41.1,30.09,NNE,16,9.4,9.9,62,0.00,,SCT028,0.00,VWS V14.01,2013-05-05 16:32:00,
2013-05-05 11:34:00,54.0,41.3,30.09,NW,305,7.2,10.5,62,0.00,,CLR,0.00,VWS V14.01,2013-05-05 16:34:00,
2013-05-05 11:36:00,54.3,41.6,30.09,NW,312,5.0,13.1,62,0.00,,CLR,0.00,VWS V14.01,2013-05-05 16:36:00,
2013-05-05 11:37:00,54.5,41.8,30.09,North,7,5.0,7.6,62,0.00,,SCT028,0.00,VWS V14.01,2013-05-05 16:37:00,
2013-05-05 11:38:00,54.7,42.0,30.09,NNW,346,3.3,7.6,62,0.00,,CLR,0.00,VWS V14.01,2013-05-05 16:38:00,
2013-05-05 11:40:00,54.9,42.1,30.09,NW,319,4.4,5.2,62,0.00,,CLR,0.00,VWS V14.01,2013-05-05 16:40:00,
2013-05-05 11:42:00,54.9,41.6,30.09,NW,316,0.0,10.8,61,0.00,,BKN036,0.00,VWS V14.01,2013-05-05 16:42:00,
2013-05-05 11:44:00,54.7,41.4,30.09,West,264,6.1,7.6,61,0.00,,CLR,0.00,VWS V14.01,2013-05-05 16:44:00,
2013-05-05 11:46:00,54.7,41.4,30.09,West,266,7.2,8.1,61,0.00,,CLR,0.00,VWS V14.01,2013-05-05 16:46:00,
2013-05-05 11:47:00,54.7,41.4,30.09,WNW,297,6.7,8.1,61,0.00,,BKN036,0.00,VWS V14.01,2013-05-05 16:47:00,
2013-05-05 11:48:00,54.7,41.4,30.09,WNW,284,3.3,8.1,61,0.00,,CLR,0.00,VWS V14.01,2013-05-05 16:48:00,
2013-05-05 11:50:00,54.9,41.6,30.09,NNE,15,3.3,7.0,61,0.00,,CLR,0.00,VWS V14.01,2013-05-05 16:50:00,
2013-05-05 11:52:00,55.0,41.7,30.09,NNE,16,3.3,11.3,61,0.00,,BKN036,0.00,VWS V14.01,2013-05-05 16:52:00,
2013-05-05 11:54:00,55.2,41.9,30.09,North,11,13.0,16.0,61,0.00,,CLR,0.00,VWS V14.01,2013-05-05 16:54:00,
2013-05-05 11:56:00,55.6,41.7,30.09,NNE,12,10.0,13.7,59,0.00,,CLR,0.00,VWS V14.01,2013-05-05 16:56:00,
2013-05-05 11:57:00,55.9,42.0,30.09,NE,47,5.0,13.1,59,0.00,,BKN036,0.00,VWS V14.01,2013-05-05 16:57:00,
2013-05-05 11:58:00,55.9,42.0,30.09,SW,228,3.9,13.1,59,0.00,,CLR,0.00,VWS V14.01,2013-05-05 16:58:00,
2013-05-05 12:00:00,56.1,41.6,30.09,West,269,5.0,8.1,58,0.00,,CLR,0.00,VWS V14.01,2013-05-05 17:00:00,
2013-05-05 12:02:00,55.9,40.8,30.09,North,10,5.0,8.1,57,0.00,,BKN036,0.00,VWS V14.01,2013-05-05 17:02:00,
2013-05-05 12:04:00,55.9,40.8,30.09,North,4,7.2,11.3,57,0.00,,CLR,0.00,VWS V14.01,2013-05-05 17:04:00,
2013-05-05 12:06:00,56.1,41.0,30.09,WSW,247,6.7,13.7,57,0.00,,CLR,0.00,VWS V14.01,2013-05-05 17:06:00,
2013-05-05 12:07:00,55.9,40.8,30.09,NE,34,8.9,14.2,57,0.00,,BKN036,0.00,VWS V14.01,2013-05-05 17:07:00,
2013-05-05 12:08:00,55.9,40.8,30.09,NNW,327,4.4,14.2,57,0.00,,CLR,0.00,VWS V14.01,2013-05-05 17:08:00,
2013-05-05 12:10:00,55.9,40.8,30.09,North,9,3.9,9.9,57,0.00,,CLR,0.00,VWS V14.01,2013-05-05 17:10:00,
2013-05-05 12:12:00,55.9,40.8,30.09,NW,322,0.0,10.5,57,0.00,,BKN036,0.00,VWS V14.01,2013-05-05 17:12:00,
2013-05-05 12:14:00,55.9,40.2,30.09,NNE,12,4.4,7.6,55,0.00,,CLR,0.00,VWS V14.01,2013-05-05 17:14:00,
2013-05-05 12:16:00,55.9,40.8,30.09,NNE,21,6.7,14.2,57,0.00,,CLR,0.00,VWS V14.01,2013-05-05 17:16:00,
2013-05-05 12:17:00,55.9,40.8,30.09,North,357,6.7,14.2,57,0.00,,BKN036,0.00,VWS V14.01,2013-05-05 17:17:00,
2013-05-05 12:18:00,56.1,41.0,30.09,WNW,291,7.8,14.2,57,0.00,,CLR,0.00,VWS V14.01,2013-05-05 17:18:00,
2013-05-05 12:20:00,56.3,41.8,30.09,NNE,17,5.0,13.7,58,0.00,,CLR,0.00,VWS V14.01,2013-05-05 17:20:00,
2013-05-05 12:22:00,56.5,41.3,30.09,NNW,335,10.0,10.8,57,0.00,,SCT032,0.00,VWS V14.01,2013-05-05 17:22:00,
2013-05-05 12:24:00,56.3,41.2,30.09,WNW,288,7.2,10.8,57,0.00,,CLR,0.00,VWS V14.01,2013-05-05 17:24:00,
2013-05-05 12:26:00,56.1,41.0,30.06,SW,235,7.8,8.1,57,0.00,,CLR,0.00,VWS V14.01,2013-05-05 17:26:00,
2013-05-05 12:27:00,55.9,41.4,30.06,West,281,10.3,10.8,58,0.00,,SCT032,0.00,VWS V14.01,2013-05-05 17:27:00,
2013-05-05 12:28:00,55.8,41.3,30.06,WSW,250,7.8,10.8,58,0.00,,CLR,0.00,VWS V14.01,2013-05-05 17:28:00,
2013-05-05 12:30:00,55.6,41.7,30.06,WNW,301,12.5,13.1,59,0.00,,CLR,0.00,VWS V14.01,2013-05-05 17:30:00,
2013-05-05 12:32:00,55.6,41.7,30.06,WNW,299,10.0,11.9,59,0.00,,SCT032,0.00,VWS V14.01,2013-05-05 17:32:00,
2013-05-05 12:34:00,55.6,41.7,30.06,West,272,10.8,13.7,59,0.00,,CLR,0.00,VWS V14.01,2013-05-05 17:34:00,
2013-05-05 12:36:00,55.6,41.7,30.06,North,357,7.8,13.7,59,0.00,,CLR,0.00,VWS V14.01,2013-05-05 17:36:00,
2013-05-05 12:37:00,55.6,41.7,30.06,NNW,333,5.0,10.8,59,0.00,,SCT032,0.00,VWS V14.01,2013-05-05 17:37:00,
2013-05-05 12:38:00,55.6,41.7,30.06,North,7,3.3,8.1,59,0.00,,CLR,0.00,VWS V14.01,2013-05-05 17:38:00,
2013-05-05 12:40:00,55.9,42.0,30.06,NW,322,3.3,8.1,59,0.00,,CLR,0.00,VWS V14.01,2013-05-05 17:40:00,
2013-05-05 12:42:00,56.3,42.9,30.06,NNE,12,5.0,10.5,61,0.00,,FEW032,0.00,VWS V14.01,2013-05-05 17:42:00,
2013-05-05 12:44:00,56.5,43.1,30.06,NW,324,7.2,14.2,61,0.00,,CLR,0.00,VWS V14.01,2013-05-05 17:44:00,
2013-05-05 12:46:00,56.7,42.7,30.06,SSW,208,5.0,10.8,59,0.00,,CLR,0.00,VWS V14.01,2013-05-05 17:46:00,
2013-05-05 12:47:00,56.7,42.7,30.06,NNE,18,9.4,10.8,59,0.00,,FEW032,0.00,VWS V14.01,2013-05-05 17:47:00,
2013-05-05 12:48:00,56.8,42.9,30.06,North,7,7.2,10.8,59,0.00,,CLR,0.00,VWS V14.01,2013-05-05 17:48:00,
2013-05-05 12:50:00,57.0,42.4,30.06,NE,38,7.8,11.3,58,0.00,,CLR,0.00,VWS V14.01,2013-05-05 17:50:00,
2013-05-05 12:52:00,57.6,43.0,30.06,NE,44,6.7,10.8,58,0.00,,FEW032,0.00,VWS V14.01,2013-05-05 17:52:00,
2013-05-05 12:54:00,57.9,43.9,30.06,North,357,6.7,12.5,59,0.00,,CLR,0.00,VWS V14.01,2013-05-05 17:54:00,
2013-05-05 12:56:00,58.5,44.4,30.06,NNE,33,8.3,8.7,59,0.00,,CLR,0.00,VWS V14.01,2013-05-05 17:56:00,
2013-05-05 12:57:00,58.5,43.8,30.06,WNW,288,10.0,10.8,58,0.00,,FEW032,0.00,VWS V14.01,2013-05-05 17:57:00,
2013-05-05 12:58:00,58.5,43.8,30.06,WNW,294,6.7,11.3,58,0.00,,CLR,0.00,VWS V14.01,2013-05-05 17:58:00,
2013-05-05 13:00:00,58.5,42.6,30.06,NW,306,9.4,11.3,55,0.00,,CLR,0.00,VWS V14.01,2013-05-05 18:00:00,
2013-05-05 13:02:00,58.1,41.6,30.06,NW,313,7.2,13.7,54,0.00,,FEW032,0.00,VWS V14.01,2013-05-05 18:02:00,
2013-05-05 13:04:00,57.9,41.5,30.06,WNW,289,3.3,8.1,54,0.00,,CLR,0.00,VWS V14.01,2013-05-05 18:04:00,
2013-05-05 13:06:00,57.7,41.3,30.06,North,357,6.1,7.6,54,0.00,,CLR,0.00,VWS V14.01,2013-05-05 18:06:00,
2013-05-05 13:07:00,57.7,41.3,30.06,NNW,329,6.7,10.5,54,0.00,,FEW032,0.00,VWS V14.01,2013-05-05 18:07:00,
2013-05-05 13:08:00,57.7,41.9,30.06,West,270,10.0,11.3,55,0.00,,CLR,0.00,VWS V14.01,2013-05-05 18:08:00,
2013-05-05 13:10:00,57.9,42.7,30.06,NE,35,7.2,11.3,57,0.00,,CLR,0.00,VWS V14.01,2013-05-05 18:10:00,
2013-05-05 13:12:00,58.3,43.0,30.03,North,357,7.2,15.4,57,0.00,,FEW032,0.00,VWS V14.01,2013-05-05 18:12:00,
2013-05-05 13:14:00,58.3,42.4,30.03,NNW,340,4.4,10.5,55,0.00,,CLR,0.00,VWS V14.01,2013-05-05 18:14:00,
2013-05-05 13:16:00,58.3,42.4,30.03,WNW,291,6.7,10.5,55,0.00,,CLR,0.00,VWS V14.01,2013-05-05 18:16:00,
2013-05-05 13:17:00,58.1,42.2,30.03,WNW,289,7.2,10.5,55,0.00,,FEW032,0.00,VWS V14.01,2013-05-05 18:17:00,
2013-05-05 13:18:00,58.1,42.2,30.03,West,275,10.3,10.8,55,0.00,,CLR,0.00,VWS V14.01,2013-05-05 18:18:00,
2013-05-05 13:20:00,58.1,42.8,30.03,NNE,14,7.2,11.3,57,0.00,,CLR,0.00,VWS V14.01,2013-05-05 18:20:00,
2013-05-05 13:22:00,58.3,43.6,30.03,NNE,22,10.0,13.1,58,0.00,,CLR,0.00,VWS V14.01,2013-05-05 18:22:00,
2013-05-05 13:23:00,58.5,43.8,30.03,NNE,29,9.4,10.8,58,0.00,,BKN044,0.00,VWS V14.01,2013-05-05 18:23:00,
2013-05-05 13:24:00,58.5,43.2,30.03,NE,37,9.4,11.3,57,0.00,,CLR,0.00,VWS V14.01,2013-05-05 18:24:00,
2013-05-05 13:26:00,58.8,42.3,30.06,WNW,297,5.0,9.9,54,0.00,,CLR,0.00,VWS V14.01,2013-05-05 18:26:00,
2013-05-05 13:28:00,58.8,42.3,30.06,NW,321,9.4,20.1,54,0.00,,BKN044,0.00,VWS V14.01,2013-05-05 18:28:00,
2013-05-05 13:30:00,58.6,42.1,30.06,WNW,287,6.7,10.8,54,0.00,,CLR,0.00,VWS V14.01,2013-05-05 18:30:00,
2013-05-05 13:32:00,58.5,42.6,30.06,North,353,4.4,9.9,55,0.00,,CLR,0.00,VWS V14.01,2013-05-05 18:32:00,
2013-05-05 13:33:00,58.5,42.6,30.06,NNE,23,12.5,14.2,55,0.00,,BKN044,0.00,VWS V14.01,2013-05-05 18:33:00,
2013-05-05 13:34:00,58.5,42.6,30.06,NNW,339,0.0,14.2,55,0.00,,CLR,0.00,VWS V14.01,2013-05-05 18:34:00,
2013-05-05 13:36:00,58.6,42.7,30.06,NNE,31,15.3,16.0,55,0.00,,CLR,0.00,VWS V14.01,2013-05-05 18:36:00,
2013-05-05 13:38:00,59.0,43.1,30.06,West,263,5.0,16.0,55,0.00,,BKN044,0.00,VWS V14.01,2013-05-05 18:38:00,
2013-05-05 13:40:00,59.2,43.9,30.06,WSW,242,3.9,5.2,57,0.00,,CLR,0.00,VWS V14.01,2013-05-05 18:40:00,
2013-05-05 13:42:00,59.4,43.4,30.06,NW,314,7.8,11.3,55,0.00,,CLR,0.00,VWS V14.01,2013-05-05 18:42:00,
2013-05-05 13:43:00,59.4,42.8,30.06,NW,323,5.0,10.8,54,0.00,,BKN042,0.00,VWS V14.01,2013-05-05 18:43:00,
2013-05-05 13:44:00,59.4,42.8,30.06,NW,312,4.4,10.8,54,0.00,,CLR,0.00,VWS V14.01,2013-05-05 18:44:00,
2013-05-05 13:46:00,59.4,42.8,30.06,NNW,338,2.8,9.9,54,0.00,,CLR,0.00,VWS V14.01,2013-05-05 18:46:00,
2013-05-05 13:48:00,59.4,43.4,30.06,North,7,10.0,17.2,55,0.00,,BKN042,0.00,VWS V14.01,2013-05-05 18:48:00,
2013-05-05 13:50:00,59.7,43.8,30.06,North,11,3.9,10.5,55,0.00,,CLR,0.00,VWS V14.01,2013-05-05 18:50:00,
2013-05-05 13:52:00,59.9,42.7,30.06,NNW,328,13.0,13.7,53,0.00,,CLR,0.00,VWS V14.01,2013-05-05 18:52:00,
2013-05-05 13:53:00,60.1,42.8,30.06,North,9,7.2,13.7,53,0.00,,BKN042,0.00,VWS V14.01,2013-05-05 18:53:00,
2013-05-05 13:54:00,60.3,43.6,30.06,NNE,30,6.1,11.3,54,0.00,,CLR,0.00,VWS V14.01,2013-05-05 18:54:00,
2013-05-05 13:56:00,60.6,44.0,30.06,NE,38,5.0,11.3,54,0.00,,CLR,0.00,VWS V14.01,2013-05-05 18:56:00,
2013-05-05 13:58:00,60.6,43.3,30.06,NE,50,2.8,7.6,53,0.00,,BKN036,0.00,VWS V14.01,2013-05-05 18:58:00,
2013-05-05 14:00:00,60.8,42.8,30.06,North,5,9.4,13.1,51,0.00,,CLR,0.00,VWS V14.01,2013-05-05 19:00:00,
2013-05-05 14:02:00,61.0,42.3,30.06,NW,325,9.4,14.2,50,0.00,,CLR,0.00,VWS V14.01,2013-05-05 19:02:00,
2013-05-05 14:03:00,61.2,43.2,30.06,North,1,8.9,14.2,51,0.00,,BKN036,0.00,VWS V14.01,2013-05-05 19:03:00,
2013-05-05 14:04:00,61.2,43.2,30.06,WNW,294,4.4,10.8,51,0.00,,CLR,0.00,VWS V14.01,2013-05-05 19:04:00,
2013-05-05 14:06:00,61.0,42.3,30.06,NNE,33,7.2,9.3,50,0.00,,CLR,0.00,VWS V14.01,2013-05-05 19:06:00,
2013-05-05 14:08:00,60.8,42.2,30.06,NW,315,3.3,11.3,50,0.00,,BKN036,0.00,VWS V14.01,2013-05-05 19:08:00,
2013-05-05 14:10:00,60.6,42.0,30.06,WNW,287,4.4,8.1,50,0.00,,CLR,0.00,VWS V14.01,2013-05-05 19:10:00,
2013-05-05 14:12:00,60.4,41.8,30.06,North,357,3.3,7.6,50,0.00,,CLR,0.00,VWS V14.01,2013-05-05 19:12:00,
2013-05-05 14:13:00,60.3,41.7,30.06,WNW,293,2.8,9.9,50,0.00,,BKN036,0.00,VWS V14.01,2013-05-05 19:13:00,
2013-05-05 14:14:00,60.1,41.5,30.06,NNW,342,7.2,9.9,50,0.00,,CLR,0.00,VWS V14.01,2013-05-05 19:14:00,
2013-05-05 14:16:00,59.7,41.8,30.06,NNE,28,5.5,7.6,51,0.00,,CLR,0.00,VWS V14.01,2013-05-05 19:16:00,
2013-05-05 14:18:00,59.5,41.7,30.06,NNE,17,9.4,10.5,51,0.00,,BKN044,0.00,VWS V14.01,2013-05-05 19:18:00,
2013-05-05 14:20:00,59.4,41.5,30.06,NW,307,2.8,9.9,51,0.00,,CLR,0.00,VWS V14.01,2013-05-05 19:20:00,
2013-05-05 14:22:00,59.2,41.3,30.06,West,270,5.0,9.9,51,0.00,,CLR,0.00,VWS V14.01,2013-05-05 19:22:00,
2013-05-05 14:23:00,59.2,41.3,30.06,NE,49,3.3,7.6,51,0.00,,BKN044,0.00,VWS V14.01,2013-05-05 19:23:00,
2013-05-05 14:24:00,59.0,41.2,30.06,NW,320,7.8,9.3,51,0.00,,CLR,0.00,VWS V14.01,2013-05-05 19:24:00,
2013-05-05 14:26:00,59.0,41.8,30.06,North,357,7.2,9.3,53,0.00,,CLR,0.00,VWS V14.01,2013-05-05 19:26:00,
2013-05-05 14:28:00,59.2,42.6,30.06,NW,316,6.7,7.0,54,0.00,,BKN044,0.00,VWS V14.01,2013-05-05 19:28:00,
2013-05-05 14:30:00,59.2,42.0,30.06,NNW,348,6.1,9.9,53,0.00,,CLR,0.00,VWS V14.01,2013-05-05 19:30:00,
2013-05-05 14:32:00,59.2,42.6,30.06,West,278,4.4,13.7,54,0.00,,CLR,0.00,VWS V14.01,2013-05-05 19:32:00,
2013-05-05 14:33:00,59.2,42.6,30.06,WNW,303,7.2,13.7,54,0.00,,BKN044,0.00,VWS V14.01,2013-05-05 19:33:00,
2013-05-05 14:34:00,59.2,42.6,30.06,WSW,249,6.1,7.6,54,0.00,,CLR,0.00,VWS V14.01,2013-05-05 19:34:00,
2013-05-05 14:36:00,59.2,43.2,30.06,NNE,18,12.5,13.1,55,0.00,,CLR,0.00,VWS V14.01,2013-05-05 19:36:00,
2013-05-05 14:38:00,59.4,43.4,30.06,NNE,25,13.6,14.2,55,0.00,,BKN043,0.00,VWS V14.01,2013-05-05 19:38:00,
2013-05-05 14:40:00,59.7,43.8,30.06,North,6,7.2,14.2,55,0.00,,CLR,0.00,VWS V14.01,2013-05-05 19:40:00,
2013-05-05 14:42:00,59.9,44.5,30.06,North,357,7.2,10.5,57,0.00,,CLR,0.00,VWS V14.01,2013-05-05 19:42:00,
2013-05-05 14:43:00,60.1,43.5,30.06,North,357,3.3,14.2,54,0.00,,BKN043,0.00,VWS V14.01,2013-05-05 19:43:00,
2013-05-05 14:44:00,60.1,43.5,30.06,North,0,3.3,14.2,54,0.00,,CLR,0.00,VWS V14.01,2013-05-05 19:44:00,
2013-05-05 14:46:00,59.9,42.7,30.06,North,3,3.3,7.0,53,0.00,,CLR,0.00,VWS V14.01,2013-05-05 19:46:00,
2013-05-05 14:48:00,59.7,42.5,30.06,West,277,9.4,9.9,53,0.00,,BKN043,0.00,VWS V14.01,2013-05-05 19:48:00,
2013-05-05 14:50:00,59.7,42.5,30.06,NW,306,16.4,17.2,53,0.00,,CLR,0.00,VWS V14.01,2013-05-05 19:50:00,
2013-05-05 14:52:00,59.7,43.1,30.06,West,277,6.1,17.2,54,0.00,,CLR,0.00,VWS V14.01,2013-05-05 19:52:00,
2013-05-05 14:53:00,59.7,43.8,30.06,WNW,297,5.0,13.1,55,0.00,,BKN043,0.00,VWS V14.01,2013-05-05 19:53:00,
2013-05-05 14:54:00,59.7,43.8,30.06,North,3,6.7,13.1,55,0.00,,CLR,0.00,VWS V14.01,2013-05-05 19:54:00,
2013-05-05 14:56:00,59.7,43.1,30.06,South,178,3.3,13.7,54,0.00,,CLR,0.00,VWS V14.01,2013-05-05 19:56:00,
2013-05-05 14:58:00,59.9,43.9,30.06,ENE,58,5.0,11.3,55,0.00,,OVC045,0.00,VWS V14.01,2013-05-05 19:58:00,
2013-05-05 15:00:00,60.1,43.5,30.06,WNW,285,6.7,10.8,54,0.00,,CLR,0.00,VWS V14.01,2013-05-05 20:00:00,
2013-05-05 15:02:00,60.3,43.6,30.06,West,280,7.8,9.9,54,0.00,,CLR,0.00,VWS V14.01,2013-05-05 20:02:00,
2013-05-05 15:03:00,60.1,43.5,30.06,NNE,13,11.9,12.5,54,0.00,,OVC045,0.00,VWS V14.01,2013-05-05 20:03:00,
2013-05-05 15:04:00,60.1,43.5,30.06,North,357,10.0,13.1,54,0.00,,CLR,0.00,VWS V14.01,2013-05-05 20:04:00,
2013-05-05 15:06:00,60.1,42.8,30.06,NW,321,15.3,16.0,53,0.00,,CLR,0.00,VWS V14.01,2013-05-05 20:06:00,
2013-05-05 15:08:00,59.7,41.8,30.06,WNW,303,6.1,11.3,51,0.00,,OVC045,0.00,VWS V14.01,2013-05-05 20:08:00,
2013-05-05 15:10:00,59.5,41.7,30.06,NNE,13,2.8,8.1,51,0.00,,CLR,0.00,VWS V14.01,2013-05-05 20:10:00,
2013-05-05 15:12:00,59.4,41.5,30.03,West,276,3.9,9.9,51,0.00,,CLR,0.00,VWS V14.01,2013-05-05 20:12:00,
2013-05-05 15:13:00,59.4,42.2,30.03,NW,310,6.1,9.9,53,0.00,,OVC045,0.00,VWS V14.01,2013-05-05 20:13:00,
2013-05-05 15:14:00,59.4,42.2,30.03,NNW,332,0.0,9.9,53,0.00,,CLR,0.00,VWS V14.01,2013-05-05 20:14:00,
2013-05-05 15:16:00,59.4,42.8,30.03,NE,35,4.4,7.6,54,0.00,,CLR,0.00,VWS V14.01,2013-05-05 20:16:00,
2013-05-05 15:18:00,59.4,42.2,30.03,NE,34,10.0,10.5,53,0.00,,CLR,0.00,VWS V14.01,2013-05-05 20:18:00,
2013-05-05 15:19:00,59.4,42.2,30.03,NNW,338,10.0,10.5,53,0.00,,BKN045,0.00,VWS V14.01,2013-05-05 20:19:00,
2013-05-05 15:20:00,59.4,42.8,30.03,NNW,346,6.7,10.5,54,0.00,,CLR,0.00,VWS V14.01,2013-05-05 20:20:00,
2013-05-05 15:22:00,59.4,42.8,30.03,WNW,295,3.3,8.1,54,0.00,,CLR,0.00,VWS V14.01,2013-05-05 20:22:00,
2013-05-05 15:24:00,59.4,42.8,30.03,NW,311,5.0,8.1,54,0.00,,BKN045,0.00,VWS V14.01,2013-05-05 20:24:00,
2013-05-05 15:26:00,59.2,43.2,30.03,WNW,299,10.3,15.4,55,0.00,,CLR,0.00,VWS V14.01,2013-05-05 20:26:00,
2013-05-05 15:28:00,59.2,43.2,30.03,NW,310,3.3,10.8,55,0.00,,CLR,0.00,VWS V14.01,2013-05-05 20:28:00,
2013-05-05 15:29:00,59.2,43.2,30.03,WNW,294,7.2,9.9,55,0.00,,BKN045,0.00,VWS V14.01,2013-05-05 20:29:00,
2013-05-05 15:30:00,59.0,43.7,30.03,WNW,290,7.8,8.1,57,0.00,,CLR,0.00,VWS V14.01,2013-05-05 20:30:00,
2013-05-05 15:32:00,59.0,43.7,30.03,West,277,10.3,10.8,57,0.00,,CLR,0.00,VWS V14.01,2013-05-05 20:32:00,
2013-05-05 15:34:00,59.0,43.7,30.03,NNW,331,7.2,10.8,57,0.00,,BKN045,0.00,VWS V14.01,2013-05-05 20:34:00,
2013-05-05 15:36:00,59.0,43.7,30.03,NW,323,4.4,9.9,57,0.00,,CLR,0.00,VWS V14.01,2013-05-05 20:36:00,
2013-05-05 15:38:00,59.0,43.7,30.03,WNW,290,10.3,10.8,57,0.00,,CLR,0.00,VWS V14.01,2013-05-05 20:38:00,
2013-05-05 15:39:00,58.8,44.1,30.03,WSW,258,4.4,10.8,58,0.00,,BKN045,0.00,VWS V14.01,2013-05-05 20:39:00,
2013-05-05 15:40:00,58.8,44.1,30.03,WNW,284,10.8,13.7,58,0.00,,CLR,0.00,VWS V14.01,2013-05-05 20:40:00,
2013-05-05 15:42:00,58.8,44.1,30.03,North,353,6.7,13.7,58,0.00,,CLR,0.00,VWS V14.01,2013-05-05 20:42:00,
2013-05-05 15:44:00,58.8,44.1,30.03,WNW,291,10.8,11.3,58,0.00,,BKN045,0.00,VWS V14.01,2013-05-05 20:44:00,
2013-05-05 15:46:00,58.8,44.7,30.03,WSW,246,7.8,11.3,59,0.00,,CLR,0.00,VWS V14.01,2013-05-05 20:46:00,
2013-05-05 15:48:00,58.6,44.5,30.03,WNW,303,10.8,18.9,59,0.00,,CLR,0.00,VWS V14.01,2013-05-05 20:48:00,
2013-05-05 15:49:00,58.6,44.5,30.03,NW,319,5.0,18.9,59,0.00,,BKN045,0.00,VWS V14.01,2013-05-05 20:49:00,
2013-05-05 15:50:00,58.6,45.1,30.03,NW,308,6.7,13.7,61,0.00,,CLR,0.00,VWS V14.01,2013-05-05 20:50:00,
2013-05-05 15:52:00,58.6,44.5,30.03,West,275,4.4,10.5,59,0.00,,CLR,0.00,VWS V14.01,2013-05-05 20:52:00,
2013-05-05 15:54:00,58.5,45.0,30.03,West,281,5.0,9.9,61,0.00,,BKN045,0.00,VWS V14.01,2013-05-05 20:54:00,
2013-05-05 15:56:00,58.5,45.0,30.03,NW,313,10.0,13.7,61,0.00,,CLR,0.00,VWS V14.01,2013-05-05 20:56:00,
2013-05-05 15:58:00,58.5,45.0,30.03,NW,312,12.5,18.3,61,0.00,,CLR,0.00,VWS V14.01,2013-05-05 20:58:00,
2013-05-05 15:59:00,58.3,44.8,30.03,West,281,18.6,19.5,61,0.00,,OVC043,0.00,VWS V14.01,2013-05-05 20:59:00,
2013-05-05 16:00:00,58.3,44.8,30.03,West,259,10.3,20.1,61,0.00,,CLR,0.00,VWS V14.01,2013-05-05 21:00:00,
2013-05-05 16:02:00,58.3,44.8,30.03,WSW,257,3.3,11.3,61,0.00,,CLR,0.00,VWS V14.01,2013-05-05 21:02:00,
2013-05-05 16:04:00,58.1,44.6,30.03,NNW,341,5.0,5.2,61,0.00,,OVC043,0.00,VWS V14.01,2013-05-05 21:04:00,
2013-05-05 16:06:00,58.1,45.2,30.03,North,11,3.9,8.1,62,0.00,,CLR,0.00,VWS V14.01,2013-05-05 21:06:00,
2013-05-05 16:08:00,58.1,45.2,30.03,West,271,0.0,5.2,62,0.00,,CLR,0.00,VWS V14.01,2013-05-05 21:08:00,
2013-05-05 16:09:00,58.1,45.2,30.03,NNW,345,6.1,8.1,62,0.00,,OVC043,0.00,VWS V14.01,2013-05-05 21:09:00,
2013-05-05 16:10:00,58.1,45.2,30.03,NNW,331,3.9,8.1,62,0.00,,CLR,0.00,VWS V14.01,2013-05-05 21:10:00,
2013-05-05 16:12:00,58.1,44.6,30.03,NNW,332,4.4,5.8,61,0.00,,CLR,0.00,VWS V14.01,2013-05-05 21:12:00,
2013-05-05 16:14:00,57.9,44.5,30.03,NE,48,2.8,7.6,61,0.00,,OVC043,0.00,VWS V14.01,2013-05-05 21:14:00,
2013-05-05 16:16:00,57.9,44.5,30.03,NW,320,6.1,10.5,61,0.00,,CLR,0.00,VWS V14.01,2013-05-05 21:16:00,
2013-05-05 16:18:00,57.7,44.3,30.03,WNW,297,6.7,8.1,61,0.00,,CLR,0.00,VWS V14.01,2013-05-05 21:18:00,
2013-05-05 16:19:00,57.7,44.3,30.03,NNW,334,9.4,9.9,61,0.00,,OVC036,0.00,VWS V14.01,2013-05-05 21:19:00,
2013-05-05 16:20:00,57.6,44.1,30.03,WNW,293,4.4,9.9,61,0.00,,CLR,0.00,VWS V14.01,2013-05-05 21:20:00,
2013-05-05 16:22:00,57.6,44.1,30.03,NNE,28,0.0,10.8,61,0.00,,CLR,0.00,VWS V14.01,2013-05-05 21:22:00,
2013-05-05 16:24:00,57.4,44.5,30.03,WNW,289,6.1,9.9,62,0.00,,OVC036,0.00,VWS V14.01,2013-05-05 21:24:00,
2013-05-05 16:26:00,57.4,44.5,30.03,NNE,24,0.0,7.6,62,0.00,,CLR,0.00,VWS V14.01,2013-05-05 21:26:00,
2013-05-05 16:28:00,57.2,44.3,30.03,NW,313,13.6,14.2,62,0.00,,CLR,0.00,VWS V14.01,2013-05-05 21:28:00,
2013-05-05 16:29:00,57.2,44.3,30.03,WNW,303,10.0,14.2,62,0.00,,OVC036,0.00,VWS V14.01,2013-05-05 21:29:00,
2013-05-05 16:30:00,57.2,44.3,30.03,WNW,284,10.3,14.2,62,0.00,,CLR,0.00,VWS V14.01,2013-05-05 21:30:00,
2013-05-05 16:32:00,57.0,44.2,30.03,WNW,291,5.5,10.8,62,0.00,,CLR,0.00,VWS V14.01,2013-05-05 21:32:00,
2013-05-05 16:34:00,57.0,44.7,30.03,NNE,14,10.8,11.3,63,0.00,,OVC036,0.00,VWS V14.01,2013-05-05 21:34:00,
2013-05-05 16:36:00,57.0,44.7,30.03,WNW,284,4.4,11.3,63,0.00,,CLR,0.00,VWS V14.01,2013-05-05 21:36:00,
2013-05-05 16:38:00,57.0,44.7,30.03,WNW,294,5.0,7.6,63,0.00,,CLR,0.00,VWS V14.01,2013-05-05 21:38:00,
2013-05-05 16:39:00,57.0,44.7,30.03,NNE,32,3.3,8.1,63,0.00,,OVC039,0.00,VWS V14.01,2013-05-05 21:39:00,
2013-05-05 16:40:00,57.0,44.7,30.03,West,270,6.1,8.1,63,0.00,,CLR,0.00,VWS V14.01,2013-05-05 21:40:00,
2013-05-05 16:42:00,57.2,44.9,30.03,WNW,297,7.2,9.9,63,0.00,,CLR,0.00,VWS V14.01,2013-05-05 21:42:00,
2013-05-05 16:44:00,57.0,44.7,30.03,WSW,257,3.9,10.8,63,0.00,,OVC039,0.00,VWS V14.01,2013-05-05 21:44:00,
2013-05-05 16:46:00,57.0,45.3,30.03,North,353,5.0,8.1,65,0.00,,CLR,0.00,VWS V14.01,2013-05-05 21:46:00,
2013-05-05 16:48:00,57.0,45.3,30.03,WNW,291,3.9,12.5,65,0.00,,CLR,0.00,VWS V14.01,2013-05-05 21:48:00,
2013-05-05 16:49:00,56.8,45.1,30.03,NW,318,4.4,12.5,65,0.00,,OVC039,0.00,VWS V14.01,2013-05-05 21:49:00,
2013-05-05 16:50:00,56.8,45.1,30.03,NW,312,0.0,10.5,65,0.00,,CLR,0.00,VWS V14.01,2013-05-05 21:50:00,
2013-05-05 16:52:00,56.8,45.1,30.03,NNW,337,4.4,8.1,65,0.00,,CLR,0.00,VWS V14.01,2013-05-05 21:52:00,
2013-05-05 16:54:00,56.8,45.1,30.03,NNE,13,0.0,6.4,65,0.00,,OVC039,0.00,VWS V14.01,2013-05-05 21:54:00,
2013-05-05 16:56:00,56.8,45.1,30.03,NNE,14,7.8,8.1,65,0.00,,CLR,0.00,VWS V14.01,2013-05-05 21:56:00,
2013-05-05 16:58:00,56.8,45.6,30.03,NNE,20,7.8,10.8,66,0.00,,CLR,0.00,VWS V14.01,2013-05-05 21:58:00,
2013-05-05 16:59:00,56.8,45.6,30.03,North,353,0.0,8.1,66,0.00,,OVC037,0.00,VWS V14.01,2013-05-05 21:59:00,
2013-05-05 17:00:00,56.8,45.6,30.03,West,259,0.0,8.1,66,0.00,,CLR,0.00,VWS V14.01,2013-05-05 22:00:00,
2013-05-05 17:02:00,56.8,45.6,30.03,WNW,285,3.9,12.5,66,0.00,,CLR,0.00,VWS V14.01,2013-05-05 22:02:00,
2013-05-05 17:04:00,56.7,45.4,30.03,NNE,20,6.7,7.0,66,0.00,,OVC037,0.00,VWS V14.01,2013-05-05 22:04:00,
2013-05-05 17:06:00,56.7,45.4,30.03,NNE,13,2.8,7.6,66,0.00,,CLR,0.00,VWS V14.01,2013-05-05 22:06:00,
2013-05-05 17:08:00,56.7,45.4,30.03,NW,307,0.0,2.9,66,0.00,,CLR,0.00,VWS V14.01,2013-05-05 22:08:00,
2013-05-05 17:09:00,56.7,45.4,30.03,WSW,248,3.9,10.5,66,0.00,,OVC037,0.00,VWS V14.01,2013-05-05 22:09:00,
2013-05-05 17:10:00,56.7,45.4,30.03,NW,320,6.7,10.5,66,0.00,,CLR,0.00,VWS V14.01,2013-05-05 22:10:00,
2013-05-05 17:12:00,56.7,45.4,30.03,NNE,16,2.8,9.9,66,0.00,,CLR,0.00,VWS V14.01,2013-05-05 22:12:00,
2013-05-05 17:14:00,56.5,45.3,30.03,North,7,7.8,11.3,66,0.00,,OVC037,0.00,VWS V14.01,2013-05-05 22:14:00,
2013-05-05 17:16:00,56.5,45.3,30.03,NNW,348,0.0,10.8,66,0.00,,CLR,0.00,VWS V14.01,2013-05-05 22:16:00,
2013-05-05 17:18:00,56.5,45.3,30.03,NW,305,4.4,5.8,66,0.00,,CLR,0.00,VWS V14.01,2013-05-05 22:18:00,
2013-05-05 17:19:00,56.5,45.3,30.03,NE,40,2.8,7.6,66,0.00,,OVC032,0.00,VWS V14.01,2013-05-05 22:19:00,
2013-05-05 17:20:00,56.5,45.3,30.03,North,11,5.0,7.6,66,0.00,,CLR,0.00,VWS V14.01,2013-05-05 22:20:00,
2013-05-05 17:22:00,56.7,46.0,30.03,NW,313,7.2,7.6,67,0.00,,CLR,0.00,VWS V14.01,2013-05-05 22:22:00,
2013-05-05 17:24:00,56.8,46.1,30.03,West,276,5.0,8.1,67,0.00,,OVC032,0.00,VWS V14.01,2013-05-05 22:24:00,
2013-05-05 17:26:00,57.0,46.3,30.03,West,264,10.3,10.8,67,0.00,,CLR,0.00,VWS V14.01,2013-05-05 22:26:00,
2013-05-05 17:28:00,57.0,46.3,30.03,WNW,300,7.8,10.5,67,0.00,,CLR,0.00,VWS V14.01,2013-05-05 22:28:00,
2013-05-05 17:30:00,57.2,46.5,30.03,North,350,4.4,10.5,67,0.00,,OVC032,0.00,VWS V14.01,2013-05-05 22:30:00,
2013-05-05 17:32:00,57.2,46.5,30.03,NNW,340,3.9,10.8,67,0.00,,CLR,0.00,VWS V14.01,2013-05-05 22:32:00,
2013-05-05 17:34:00,57.2,46.5,30.03,NNE,32,5.0,9.9,67,0.00,,CLR,0.00,VWS V14.01,2013-05-05 22:34:00,
2013-05-05 17:35:00,57.4,46.7,30.03,NE,39,0.0,9.9,67,0.00,,OVC032,0.00,VWS V14.01,2013-05-05 22:35:00,
2013-05-05 17:36:00,57.4,46.7,30.03,NNW,342,13.0,13.7,67,0.00,,CLR,0.00,VWS V14.01,2013-05-05 22:36:00,
2013-05-05 17:38:00,57.4,46.1,30.03,NW,308,4.4,13.7,66,0.00,,CLR,0.00,VWS V14.01,2013-05-05 22:38:00,
2013-05-05 17:40:00,57.2,46.0,30.03,NNW,332,6.7,12.5,66,0.00,,BKN032,0.00,VWS V14.01,2013-05-05 22:40:00,
2013-05-05 17:42:00,56.8,45.6,30.03,NW,321,6.1,11.3,66,0.00,,CLR,0.00,VWS V14.01,2013-05-05 22:42:00,
2013-05-05 17:44:00,56.7,45.4,30.03,WNW,298,0.0,6.4,66,0.00,,CLR,0.00,VWS V14.01,2013-05-05 22:44:00,
2013-05-05 17:45:00,56.7,45.4,30.03,WSW,246,3.9,7.0,66,0.00,,BKN032,0.00,VWS V14.01,2013-05-05 22:45:00,
2013-05-05 17:46:00,56.5,45.3,30.03,NNE,29,0.0,9.9,66,0.00,,CLR,0.00,VWS V14.01,2013-05-05 22:46:00,
2013-05-05 17:48:00,56.3,45.1,30.03,NW,317,0.0,10.5,66,0.00,,CLR,0.00,VWS V14.01,2013-05-05 22:48:00,
2013-05-05 17:50:00,56.3,45.1,30.03,West,275,7.2,7.6,66,0.00,,BKN032,0.00,VWS V14.01,2013-05-05 22:50:00,
2013-05-05 17:52:00,56.1,45.5,30.03,WNW,292,2.8,10.5,67,0.00,,CLR,0.00,VWS V14.01,2013-05-05 22:52:00,
2013-05-05 17:54:00,56.1,45.5,30.03,NNW,341,10.3,10.8,67,0.00,,CLR,0.00,VWS V14.01,2013-05-05 22:54:00,
2013-05-05 17:55:00,56.1,45.5,30.03,WNW,289,3.9,10.8,67,0.00,,BKN032,0.00,VWS V14.01,2013-05-05 22:55:00,
2013-05-05 17:56:00,56.1,46.0,30.03,NW,312,5.0,8.1,69,0.00,,CLR,0.00,VWS V14.01,2013-05-05 22:56:00,
2013-05-05 17:58:00,56.1,46.0,30.03,NE,46,5.0,7.0,69,0.00,,CLR,0.00,VWS V14.01,2013-05-05 22:58:00,
2013-05-05 18:00:00,56.3,46.6,30.03,NNW,330,7.8,10.5,70,0.00,,SCT025,0.00,VWS V14.01,2013-05-05 23:00:00,
2013-05-05 18:02:00,56.3,46.6,30.03,NW,325,5.0,10.8,70,0.00,,CLR,0.00,VWS V14.01,2013-05-05 23:02:00,
2013-05-05 18:04:00,56.3,46.6,30.03,WNW,294,4.4,9.3,70,0.00,,CLR,0.00,VWS V14.01,2013-05-05 23:04:00,
2013-05-05 18:05:00,56.3,46.6,30.03,NNW,327,6.1,9.3,70,0.00,,SCT025,0.00,VWS V14.01,2013-05-05 23:05:00,
2013-05-05 18:06:00,56.3,46.6,30.03,NW,318,5.0,8.1,70,0.00,,CLR,0.00,VWS V14.01,2013-05-05 23:06:00,
2013-05-05 18:08:00,56.1,46.5,30.03,WNW,298,6.7,7.0,70,0.00,,CLR,0.00,VWS V14.01,2013-05-05 23:08:00,
2013-05-05 18:10:00,56.1,47.0,30.03,WNW,286,9.4,9.9,71,0.00,,SCT025,0.00,VWS V14.01,2013-05-05 23:10:00,
2013-05-05 18:12:00,56.1,47.0,30.03,WNW,295,6.7,11.3,71,0.00,,CLR,0.00,VWS V14.01,2013-05-05 23:12:00,
2013-05-05 18:14:00,56.1,47.0,30.03,North,7,8.3,8.7,71,0.00,,CLR,0.00,VWS V14.01,2013-05-05 23:14:00,
2013-05-05 18:15:00,56.1,47.0,30.03,NNW,328,6.7,8.7,71,0.00,,SCT025,0.00,VWS V14.01,2013-05-05 23:15:00,
2013-05-05 18:16:00,56.1,47.0,30.03,NNE,13,0.0,8.7,71,0.00,,CLR,0.00,VWS V14.01,2013-05-05 23:16:00,
2013-05-05 18:18:00,55.9,46.8,30.03,North,357,0.0,6.4,71,0.00,,CLR,0.00,VWS V14.01,2013-05-05 23:18:00,
2013-05-05 18:20:00,55.9,46.8,30.03,WNW,290,10.3,10.8,71,0.00,,BKN025,0.00,VWS V14.01,2013-05-05 23:20:00,
2013-05-05 18:22:00,55.8,46.6,30.03,West,281,0.0,7.6,71,0.00,,CLR,0.00,VWS V14.01,2013-05-05 23:22:00,
2013-05-05 18:24:00,55.8,47.1,30.03,WNW,284,7.2,13.7,73,0.00,,CLR,0.00,VWS V14.01,2013-05-05 23:24:00,
2013-05-05 18:25:00,55.6,46.9,30.03,West,278,9.4,15.4,73,0.00,,BKN025,0.00,VWS V14.01,2013-05-05 23:25:00,
2013-05-05 18:26:00,55.6,46.9,30.03,North,353,3.3,15.4,73,0.00,,CLR,0.00,VWS V14.01,2013-05-05 23:26:00,
2013-05-05 18:28:00,55.4,46.8,30.03,West,263,7.8,8.1,73,0.00,,CLR,0.00,VWS V14.01,2013-05-05 23:28:00,
2013-05-05 18:30:00,55.2,47.1,30.03,NW,323,6.7,13.1,74,0.00,,BKN025,0.00,VWS V14.01,2013-05-05 23:30:00,
2013-05-05 18:32:00,55.2,47.5,30.03,NNW,327,4.4,7.0,75,0.00,,CLR,0.00,VWS V14.01,2013-05-05 23:32:00,
2013-05-05 18:34:00,55.2,47.5,30.03,WSW,253,10.0,10.5,75,0.00,,CLR,0.00,VWS V14.01,2013-05-05 23:34:00,
2013-05-05 18:35:00,55.0,47.4,30.03,West,264,5.0,10.5,75,0.00,,BKN025,0.00,VWS V14.01,2013-05-05 23:35:00,
2013-05-05 18:36:00,55.0,47.4,30.03,WNW,293,4.4,10.5,75,0.00,,CLR,0.00,VWS V14.01,2013-05-05 23:36:00,
2013-05-05 18:38:00,55.0,47.4,30.03,NW,315,0.0,7.0,75,0.00,,CLR,0.00,VWS V14.01,2013-05-05 23:38:00,
2013-05-05 18:40:00,55.0,47.4,30.03,NNW,334,3.3,5.2,75,0.00,,OVC025,0.00,VWS V14.01,2013-05-05 23:40:00,
2013-05-05 18:42:00,55.0,47.4,30.03,West,275,5.0,6.4,75,0.00,,CLR,0.00,VWS V14.01,2013-05-05 23:42:00,
2013-05-05 18:44:00,55.0,47.4,30.03,West,269,7.8,9.9,75,0.00,,CLR,0.00,VWS V14.01,2013-05-05 23:44:00,
2013-05-05 18:45:00,55.0,47.4,30.03,WNW,288,3.9,9.9,75,0.00,,OVC025,0.00,VWS V14.01,2013-05-05 23:45:00,
2013-05-05 18:46:00,55.0,47.4,30.03,WNW,300,7.2,9.9,75,0.00,,CLR,0.00,VWS V14.01,2013-05-05 23:46:00,
2013-05-05 18:48:00,55.0,47.8,30.03,NNW,342,3.3,3.5,77,0.00,,CLR,0.00,VWS V14.01,2013-05-05 23:48:00,
2013-05-05 18:50:00,55.0,47.8,30.03,SW,232,2.8,6.4,77,0.00,,OVC025,0.00,VWS V14.01,2013-05-05 23:50:00,
2013-05-05 18:52:00,55.0,47.8,30.03,WNW,294,3.3,4.7,77,0.00,,CLR,0.00,VWS V14.01,2013-05-05 23:52:00,
2013-05-05 18:54:00,55.0,47.8,30.03,WNW,285,7.8,8.1,77,0.00,,CLR,0.00,VWS V14.01,2013-05-05 23:54:00,
2013-05-05 18:55:00,55.0,47.8,30.03,WNW,282,3.9,8.1,77,0.00,,OVC025,0.00,VWS V14.01,2013-05-05 23:55:00,
2013-05-05 18:56:00,55.0,47.8,30.03,NNW,331,5.0,9.9,77,0.00,,CLR,0.00,VWS V14.01,2013-05-05 23:56:00,
2013-05-05 18:58:00,55.0,47.8,30.03,North,353,6.7,7.0,77,0.00,,CLR,0.00,VWS V14.01,2013-05-05 23:58:00,
2013-05-05 19:00:00,55.0,47.8,30.03,NW,310,4.4,7.6,77,0.00,,OVC025,0.00,VWS V14.01,2013-05-06 00:00:00,
2013-05-05 19:02:00,55.0,47.8,30.03,West,271,3.3,7.0,77,0.00,,CLR,0.00,VWS V14.01,2013-05-06 00:02:00,
2013-05-05 19:04:00,55.0,47.8,30.03,NNW,336,9.4,9.9,77,0.00,,CLR,0.00,VWS V14.01,2013-05-06 00:04:00,
2013-05-05 19:05:00,55.0,47.8,30.03,WNW,292,2.8,9.9,77,0.00,,OVC025,0.00,VWS V14.01,2013-05-06 00:05:00,
2013-05-05 19:06:00,54.9,47.6,30.03,WNW,284,0.0,9.9,77,0.00,,CLR,0.00,VWS V14.01,2013-05-06 00:06:00,
2013-05-05 19:08:00,54.9,47.6,30.03,WNW,301,2.8,6.4,77,0.00,,CLR,0.00,VWS V14.01,2013-05-06 00:08:00,
2013-05-05 19:10:00,54.9,47.6,30.03,North,0,4.4,5.2,77,0.00,,OVC025,0.00,VWS V14.01,2013-05-06 00:10:00,
2013-05-05 19:12:00,54.9,47.6,30.03,West,260,4.4,4.7,77,0.00,,CLR,0.00,VWS V14.01,2013-05-06 00:12:00,
2013-05-05 19:14:00,54.9,47.6,30.03,WNW,295,3.9,10.8,77,0.00,,CLR,0.00,VWS V14.01,2013-05-06 00:14:00,
2013-05-05 19:15:00,54.9,48.1,30.03,West,271,4.4,6.4,78,0.00,,OVC025,0.00,VWS V14.01,2013-05-06 00:15:00,
2013-05-05 19:16:00,54.9,48.1,30.03,West,272,0.0,4.7,78,0.00,,CLR,0.00,VWS V14.01,2013-05-06 00:16:00,
2013-05-05 19:18:00,54.9,48.1,30.03,WNW,293,3.3,5.2,78,0.00,,CLR,0.00,VWS V14.01,2013-05-06 00:18:00,
2013-05-05 19:20:00,54.9,48.1,30.03,NW,321,5.0,8.1,78,0.00,,OVC025,0.00,VWS V14.01,2013-05-06 00:20:00,
2013-05-05 19:22:00,54.9,48.1,30.03,North,6,4.4,8.1,78,0.00,,CLR,0.00,VWS V14.01,2013-05-06 00:22:00,
2013-05-05 19:24:00,54.9,48.1,30.03,WNW,301,4.4,4.7,78,0.00,,CLR,0.00,VWS V14.01,2013-05-06 00:24:00,
2013-05-05 19:25:00,54.9,48.1,30.03,West,276,3.3,5.2,78,0.00,,OVC025,0.00,VWS V14.01,2013-05-06 00:25:00,
2013-05-05 19:26:00,54.9,48.1,30.03,WNW,284,0.0,5.2,78,0.00,,CLR,0.00,VWS V14.01,2013-05-06 00:26:00,
2013-05-05 19:28:00,54.9,48.1,30.03,WNW,283,5.0,10.8,78,0.00,,CLR,0.00,VWS V14.01,2013-05-06 00:28:00,
2013-05-05 19:30:00,54.9,48.1,30.03,West,272,3.9,6.4,78,0.00,,OVC025,0.00,VWS V14.01,2013-05-06 00:30:00,
2013-05-05 19:32:00,54.9,48.1,30.03,WNW,286,0.0,5.2,78,0.00,,OVC025,0.00,VWS V14.01,2013-05-06 00:32:00,
2013-05-05 19:34:00,54.9,48.1,30.03,West,277,5.0,7.0,78,0.00,,OVC025,0.00,VWS V14.01,2013-05-06 00:34:00,
2013-05-05 19:36:00,54.7,47.9,30.03,WNW,290,7.8,8.1,78,0.00,,OVC025,0.00,VWS V14.01,2013-05-06 00:36:00,
2013-05-05 19:38:00,54.7,48.4,30.03,West,278,0.0,7.6,79,0.00,,OVC025,0.00,VWS V14.01,2013-05-06 00:38:00,
2013-05-05 19:40:00,54.7,48.4,30.03,WNW,287,7.2,7.6,79,0.00,,OVC025,0.00,VWS V14.01,2013-05-06 00:40:00,
2013-05-05 19:42:00,54.7,48.4,30.03,WNW,303,5.0,8.1,79,0.00,,OVC025,0.00,VWS V14.01,2013-05-06 00:42:00,
2013-05-05 19:44:00,54.7,48.4,30.03,WNW,290,7.8,8.1,79,0.00,,CLR,0.00,VWS V14.01,2013-05-06 00:44:00,
2013-05-05 19:46:00,54.5,48.2,30.03,West,266,7.2,9.9,79,0.00,,CLR,0.00,VWS V14.01,2013-05-06 00:46:00,
2013-05-05 19:48:00,54.5,48.2,30.03,WNW,295,4.4,8.1,79,0.00,,CLR,0.00,VWS V14.01,2013-05-06 00:48:00,
2013-05-05 19:50:00,54.5,48.2,30.03,WNW,297,9.4,10.8,79,0.00,,CLR,0.00,VWS V14.01,2013-05-06 00:50:00,
2013-05-05 19:52:00,54.5,48.6,30.03,West,279,7.2,10.8,81,0.00,,CLR,0.00,VWS V14.01,2013-05-06 00:52:00,
2013-05-05 19:53:00,54.5,48.6,30.03,WNW,291,4.4,10.8,81,0.00,,OVC025,0.00,VWS V14.01,2013-05-06 00:53:00,
2013-05-05 19:54:00,54.5,48.6,30.03,WNW,283,7.2,9.9,81,0.00,,CLR,0.00,VWS V14.01,2013-05-06 00:54:00,
2013-05-05 19:56:00,54.3,48.5,30.03,WNW,285,4.4,11.3,81,0.00,,CLR,0.00,VWS V14.01,2013-05-06 00:56:00,
2013-05-05 19:58:00,54.3,48.9,30.03,WNW,293,10.8,13.7,82,0.00,,OVC025,0.00,VWS V14.01,2013-05-06 00:58:00,
2013-05-05 20:00:00,54.3,48.9,30.03,NW,305,13.0,13.7,82,0.00,,CLR,0.00,VWS V14.01,2013-05-06 01:00:00,
2013-05-05 20:02:00,54.3,48.9,30.03,West,278,6.1,14.2,82,0.00,,CLR,0.00,VWS V14.01,2013-05-06 01:02:00,
2013-05-05 20:03:00,54.1,48.7,30.03,North,353,0.0,14.2,82,0.00,,OVC025,0.00,VWS V14.01,2013-05-06 01:03:00,
2013-05-05 20:04:00,54.1,48.7,30.03,West,280,8.9,11.3,82,0.00,,CLR,0.00,VWS V14.01,2013-05-06 01:04:00,
2013-05-05 20:06:00,54.1,48.7,30.03,West,280,10.3,11.3,82,0.00,,CLR,0.00,VWS V14.01,2013-05-06 01:06:00,
2013-05-05 20:08:00,54.0,48.5,30.03,WNW,296,7.8,13.1,82,0.00,,OVC025,0.00,VWS V14.01,2013-05-06 01:08:00,
2013-05-05 20:10:00,54.0,48.5,30.03,WNW,302,6.7,10.5,82,0.00,,CLR,0.00,VWS V14.01,2013-05-06 01:10:00,
2013-05-05 20:12:00,53.8,48.4,30.03,WNW,302,7.2,10.8,82,0.00,,CLR,0.00,VWS V14.01,2013-05-06 01:12:00,
2013-05-05 20:13:00,53.6,48.2,30.03,NW,310,7.8,8.1,82,0.00,,OVC025,0.00,VWS V14.01,2013-05-06 01:13:00,
2013-05-05 20:14:00,53.6,48.2,30.03,WNW,301,3.3,8.1,82,0.00,,CLR,0.00,VWS V14.01,2013-05-06 01:14:00,
2013-05-05 20:16:00,53.6,48.6,30.03,NW,306,7.8,9.9,83,0.00,,CLR,0.00,VWS V14.01,2013-05-06 01:16:00,
2013-05-05 20:18:00,53.4,48.5,30.03,WNW,299,7.8,9.9,83,0.00,,OVC023,0.00,VWS V14.01,2013-05-06 01:18:00,
2013-05-05 20:20:00,53.2,48.3,30.03,West,261,7.8,9.9,83,0.00,,CLR,0.00,VWS V14.01,2013-05-06 01:20:00,
2013-05-05 20:22:00,53.2,48.7,30.03,WNW,288,6.7,10.5,84,0.00,,CLR,0.00,VWS V14.01,2013-05-06 01:22:00,
2013-05-05 20:23:00,53.2,48.7,30.03,WNW,284,6.7,10.8,84,0.00,,OVC023,0.00,VWS V14.01,2013-05-06 01:23:00,
2013-05-05 20:24:00,53.1,48.5,30.03,WNW,295,6.7,10.8,84,0.00,,CLR,0.00,VWS V14.01,2013-05-06 01:24:00,
2013-05-05 20:26:00,53.1,48.5,30.03,WNW,285,6.7,7.6,84,0.00,,CLR,0.00,VWS V14.01,2013-05-06 01:26:00,
2013-05-05 20:28:00,52.9,48.3,30.03,West,279,10.3,13.7,84,0.00,,OVC023,0.00,VWS V14.01,2013-05-06 01:28:00,
2013-05-05 20:30:00,52.9,48.3,30.03,WNW,290,10.0,13.7,84,0.00,,CLR,0.00,VWS V14.01,2013-05-06 01:30:00,
2013-05-05 20:32:00,52.7,48.2,30.03,WNW,284,11.9,12.5,84,0.00,,CLR,0.00,VWS V14.01,2013-05-06 01:32:00,
2013-05-05 20:33:00,52.5,48.0,30.03,WNW,301,10.0,13.7,84,0.00,,OVC023,0.00,VWS V14.01,2013-05-06 01:33:00,
2013-05-05 20:34:00,52.5,48.0,30.03,West,279,10.0,13.7,84,0.00,,CLR,0.00,VWS V14.01,2013-05-06 01:34:00,
2013-05-05 20:36:00,52.5,48.0,30.03,NNW,331,8.9,10.5,84,0.00,,CLR,0.00,VWS V14.01,2013-05-06 01:36:00,
2013-05-05 20:38:00,52.3,48.2,30.03,WNW,292,7.2,11.3,86,0.00,,BKN023,0.00,VWS V14.01,2013-05-06 01:38:00,
2013-05-05 20:40:00,52.3,48.2,30.03,WNW,292,4.4,8.1,86,0.00,,CLR,0.00,VWS V14.01,2013-05-06 01:40:00,
2013-05-05 20:42:00,52.2,48.0,30.03,WNW,296,3.9,9.9,86,0.00,,CLR,0.00,VWS V14.01,2013-05-06 01:42:00,
2013-05-05 20:43:00,52.2,48.0,30.03,West,259,3.9,9.3,86,0.00,,BKN023,0.00,VWS V14.01,2013-05-06 01:43:00,
2013-05-05 20:44:00,52.2,48.0,30.03,WNW,293,3.9,9.3,86,0.00,,CLR,0.00,VWS V14.01,2013-05-06 01:44:00,
2013-05-05 20:46:00,52.2,48.5,30.03,NNE,28,3.3,4.1,87,0.00,,CLR,0.00,VWS V14.01,2013-05-06 01:46:00,
2013-05-05 20:48:00,52.2,48.5,30.03,WNW,290,4.4,8.1,87,0.00,,CLR,0.00,VWS V14.01,2013-05-06 01:48:00,
2013-05-05 20:49:00,52.2,48.5,30.03,WNW,300,5.0,8.1,87,0.00,,BKN023,0.00,VWS V14.01,2013-05-06 01:49:00,
2013-05-05 20:50:00,52.2,48.5,30.03,NNW,334,2.8,6.4,87,0.00,,CLR,0.00,VWS V14.01,2013-05-06 01:50:00,
2013-05-05 20:52:00,52.3,48.6,30.03,WNW,292,5.0,6.4,87,0.00,,CLR,0.00,VWS V14.01,2013-05-06 01:52:00,
2013-05-05 20:54:00,52.3,49.0,30.03,West,262,4.4,7.0,88,0.00,,BKN023,0.00,VWS V14.01,2013-05-06 01:54:00,
2013-05-05 20:56:00,52.5,49.2,30.03,West,277,5.5,5.8,88,0.00,,CLR,0.00,VWS V14.01,2013-05-06 01:56:00,
2013-05-05 20:58:00,52.5,49.2,30.03,WNW,291,2.8,6.4,88,0.00,,CLR,0.00,VWS V14.01,2013-05-06 01:58:00,
2013-05-05 20:59:00,52.5,49.2,30.03,WNW,296,0.0,4.7,88,0.00,,BKN019,0.00,VWS V14.01,2013-05-06 01:59:00,
2013-05-05 21:00:00,52.7,49.4,30.03,WNW,295,0.0,2.9,88,0.00,,CLR,0.00,VWS V14.01,2013-05-06 02:00:00,
2013-05-05 21:02:00,52.7,49.4,30.03,NNE,12,0.0,3.5,88,0.00,,CLR,0.00,VWS V14.01,2013-05-06 02:02:00,
2013-05-05 21:04:00,52.7,49.4,30.03,NW,306,3.3,8.7,88,0.00,,BKN019,0.00,VWS V14.01,2013-05-06 02:04:00,
2013-05-05 21:06:00,52.7,49.4,30.03,NNE,25,3.9,4.7,88,0.00,,CLR,0.00,VWS V14.01,2013-05-06 02:06:00,
2013-05-05 21:08:00,52.7,49.4,30.03,WNW,301,2.8,6.4,88,0.00,,CLR,0.00,VWS V14.01,2013-05-06 02:08:00,
2013-05-05 21:09:00,52.7,49.4,30.03,WNW,301,0.0,6.4,88,0.00,,BKN019,0.00,VWS V14.01,2013-05-06 02:09:00,
2013-05-05 21:10:00,52.7,49.4,30.03,WNW,301,0.0,2.9,88,0.00,,CLR,0.00,VWS V14.01,2013-05-06 02:10:00,
2013-05-05 21:12:00,52.7,49.4,30.06,WNW,291,5.0,7.0,88,0.00,,CLR,0.00,VWS V14.01,2013-05-06 02:12:00,
2013-05-05 21:14:00,52.7,49.4,30.06,WNW,289,5.0,7.0,88,0.00,,BKN019,0.00,VWS V14.01,2013-05-06 02:14:00,
2013-05-05 21:16:00,52.7,49.4,30.06,WNW,300,0.0,5.2,88,0.00,,CLR,0.00,VWS V14.01,2013-05-06 02:16:00,
2013-05-05 21:18:00,52.7,49.4,30.06,North,6,0.0,5.2,88,0.00,,CLR,0.00,VWS V14.01,2013-05-06 02:18:00,
2013-05-05 21:19:00,52.7,49.4,30.06,NW,308,3.3,5.2,88,0.00,,OVC019,0.00,VWS V14.01,2013-05-06 02:19:00,
2013-05-05 21:20:00,52.7,49.4,30.06,WNW,301,6.1,6.4,88,0.00,,CLR,0.00,VWS V14.01,2013-05-06 02:20:00,
2013-05-05 21:22:00,52.9,49.6,30.06,WNW,293,7.8,8.1,88,0.00,,CLR,0.00,VWS V14.01,2013-05-06 02:22:00,
2013-05-05 21:24:00,52.9,49.6,30.06,NW,308,3.9,8.1,88,0.00,,OVC019,0.00,VWS V14.01,2013-05-06 02:24:00,
2013-05-05 21:26:00,52.9,49.6,30.06,WNW,299,7.8,8.1,88,0.00,,CLR,0.00,VWS V14.01,2013-05-06 02:26:00,
2013-05-05 21:28:00,52.9,49.6,30.06,North,10,7.2,9.3,88,0.00,,CLR,0.00,VWS V14.01,2013-05-06 02:28:00,
2013-05-05 21:29:00,52.9,49.6,30.06,NW,314,5.0,9.3,88,0.00,,OVC019,0.00,VWS V14.01,2013-05-06 02:29:00,
2013-05-05 21:30:00,52.9,49.6,30.06,WNW,301,4.4,7.6,88,0.00,,CLR,0.00,VWS V14.01,2013-05-06 02:30:00,
2013-05-05 21:32:00,52.9,49.6,30.06,NW,313,6.7,7.0,88,0.00,,CLR,0.00,VWS V14.01,2013-05-06 02:32:00,
2013-05-05 21:34:00,52.9,49.6,30.06,NW,304,7.2,7.6,88,0.00,,OVC019,0.00,VWS V14.01,2013-05-06 02:34:00,
2013-05-05 21:36:00,52.9,49.6,30.06,NW,313,4.4,8.7,88,0.00,,CLR,0.00,VWS V14.01,2013-05-06 02:36:00,
2013-05-05 21:38:00,52.9,49.6,30.06,WNW,298,2.8,6.4,88,0.00,,CLR,0.00,VWS V14.01,2013-05-06 02:38:00,
2013-05-05 21:39:00,52.9,49.6,30.06,North,353,3.3,5.2,88,0.00,,OVC019,0.00,VWS V14.01,2013-05-06 02:39:00,
2013-05-05 21:40:00,52.9,49.6,30.06,West,261,3.9,5.2,88,0.00,,CLR,0.00,VWS V14.01,2013-05-06 02:40:00,
2013-05-05 21:42:00,52.7,49.4,30.06,NW,319,4.4,9.9,88,0.00,,CLR,0.00,VWS V14.01,2013-05-06 02:42:00,
2013-05-05 21:44:00,52.7,49.4,30.06,NNW,328,6.7,7.0,88,0.00,,OVC019,0.00,VWS V14.01,2013-05-06 02:44:00,
2013-05-05 21:46:00,52.7,49.4,30.06,WNW,298,7.8,9.9,88,0.00,,CLR,0.00,VWS V14.01,2013-05-06 02:46:00,
2013-05-05 21:48:00,52.7,49.4,30.06,West,260,6.7,8.1,88,0.00,,CLR,0.00,VWS V14.01,2013-05-06 02:48:00,
2013-05-05 21:49:00,52.7,49.4,30.06,West,268,3.9,10.5,88,0.00,,OVC019,0.00,VWS V14.01,2013-05-06 02:49:00,
2013-05-05 21:50:00,52.7,49.4,30.06,WNW,288,5.0,10.5,88,0.00,,CLR,0.00,VWS V14.01,2013-05-06 02:50:00,
2013-05-05 21:52:00,52.7,49.4,30.06,NNE,28,0.0,10.5,88,0.00,,CLR,0.00,VWS V14.01,2013-05-06 02:52:00,
2013-05-05 21:54:00,52.7,49.4,30.06,WNW,285,7.8,8.1,88,0.00,,OVC019,0.00,VWS V14.01,2013-05-06 02:54:00,
2013-05-05 21:56:00,52.7,49.4,30.06,WNW,292,2.8,8.1,88,0.00,,CLR,0.00,VWS V14.01,2013-05-06 02:56:00,
2013-05-05 21:58:00,52.7,49.4,30.06,NW,314,2.8,8.1,88,0.00,,CLR,0.00,VWS V14.01,2013-05-06 02:58:00,
2013-05-05 21:59:00,52.7,49.4,30.06,NW,319,0.0,9.9,88,0.00,,OVC019,0.00,VWS V14.01,2013-05-06 02:59:00,
2013-05-05 22:00:00,52.7,49.4,30.06,NW,306,2.8,9.9,88,0.00,,CLR,0.00,VWS V14.01,2013-05-06 03:00:00,
2013-05-05 22:02:00,52.7,49.4,30.06,North,0,0.0,2.9,88,0.00,,CLR,0.00,VWS V14.01,2013-05-06 03:02:00,
2013-05-05 22:04:00,52.7,49.4,30.06,West,268,3.9,4.1,88,0.00,,OVC019,0.00,VWS V14.01,2013-05-06 03:04:00,
2013-05-05 22:06:00,52.7,49.4,30.06,North,357,3.9,4.1,88,0.00,,CLR,0.00,VWS V14.01,2013-05-06 03:06:00,
2013-05-05 22:08:00,52.5,49.2,30.06,WNW,291,3.3,5.2,88,0.00,,CLR,0.00,VWS V14.01,2013-05-06 03:08:00,
2013-05-05 22:09:00,52.5,49.2,30.06,WNW,282,3.3,5.2,88,0.00,,OVC019,0.00,VWS V14.01,2013-05-06 03:09:00,
2013-05-05 22:10:00,52.5,49.2,30.06,West,259,3.9,4.1,88,0.00,,CLR,0.00,VWS V14.01,2013-05-06 03:10:00,
2013-05-05 22:12:00,52.5,49.2,30.06,West,276,0.0,7.0,88,0.00,,CLR,0.00,VWS V14.01,2013-05-06 03:12:00,
2013-05-05 22:14:00,52.5,49.2,30.06,NW,304,6.1,7.0,88,0.00,,OVC019,0.00,VWS V14.01,2013-05-06 03:14:00,
2013-05-05 22:16:00,52.5,49.2,30.06,NW,305,4.4,9.9,88,0.00,,CLR,0.00,VWS V14.01,2013-05-06 03:16:00,
2013-05-05 22:18:00,52.5,49.2,30.06,WNW,303,3.9,7.6,88,0.00,,CLR,0.00,VWS V14.01,2013-05-06 03:18:00,
2013-05-05 22:19:00,52.5,49.2,30.06,WNW,289,3.9,8.1,88,0.00,,OVC019,0.00,VWS V14.01,2013-05-06 03:19:00,
2013-05-05 22:20:00,52.5,49.2,30.06,WNW,284,4.4,8.1,88,0.00,,CLR,0.00,VWS V14.01,2013-05-06 03:20:00,
2013-05-05 22:22:00,52.5,49.2,30.06,WNW,297,0.0,6.4,88,0.00,,CLR,0.00,VWS V14.01,2013-05-06 03:22:00,
2013-05-05 22:24:00,52.5,49.2,30.06,West,274,7.2,8.1,88,0.00,,OVC019,0.00,VWS V14.01,2013-05-06 03:24:00,
2013-05-05 22:26:00,52.5,49.2,30.06,WNW,290,6.1,11.9,88,0.00,,CLR,0.00,VWS V14.01,2013-05-06 03:26:00,
2013-05-05 22:28:00,52.5,49.2,30.06,WNW,300,7.2,8.7,88,0.00,,CLR,0.00,VWS V14.01,2013-05-06 03:28:00,
2013-05-05 22:29:00,52.5,49.2,30.06,WNW,297,6.7,8.7,88,0.00,,OVC019,0.00,VWS V14.01,2013-05-06 03:29:00,
2013-05-05 22:30:00,52.5,49.2,30.06,WNW,298,7.8,8.1,88,0.00,,CLR,0.00,VWS V14.01,2013-05-06 03:30:00,
2013-05-05 22:32:00,52.5,49.2,30.06,West,260,0.0,4.7,88,0.00,,CLR,0.00,VWS V14.01,2013-05-06 03:32:00,
2013-05-05 22:34:00,52.5,49.2,30.06,WNW,293,3.3,8.1,88,0.00,,CLR,0.00,VWS V14.01,2013-05-06 03:34:00,
2013-05-05 22:35:00,52.5,49.2,30.06,West,270,4.4,8.1,88,0.00,,OVC019,0.00,VWS V14.01,2013-05-06 03:35:00,
2013-05-05 22:36:00,52.5,49.2,30.06,NNW,341,0.0,5.2,88,0.00,,CLR,0.00,VWS V14.01,2013-05-06 03:36:00,
2013-05-05 22:38:00,52.5,49.2,30.06,WNW,297,7.8,8.7,88,0.00,,CLR,0.00,VWS V14.01,2013-05-06 03:38:00,
2013-05-05 22:40:00,52.5,49.2,30.06,NW,320,0.0,8.1,88,0.00,,OVC019,0.00,VWS V14.01,2013-05-06 03:40:00,
2013-05-05 22:42:00,52.5,49.2,30.06,WNW,286,3.3,3.5,88,0.00,,CLR,0.00,VWS V14.01,2013-05-06 03:42:00,
2013-05-05 22:44:00,52.5,49.6,30.06,NW,311,4.4,5.2,90,0.00,,CLR,0.00,VWS V14.01,2013-05-06 03:44:00,
2013-05-05 22:45:00,52.5,49.6,30.06,WSW,255,3.3,5.2,90,0.00,,OVC019,0.00,VWS V14.01,2013-05-06 03:45:00,
2013-05-05 22:46:00,52.5,49.6,30.06,WNW,298,3.9,4.7,90,0.00,,CLR,0.00,VWS V14.01,2013-05-06 03:46:00,
2013-05-05 22:48:00,52.5,49.6,30.06,NW,309,0.0,5.2,90,0.00,,CLR,0.00,VWS V14.01,2013-05-06 03:48:00,
2013-05-05 22:50:00,52.5,49.6,30.06,WNW,290,6.7,7.0,90,0.00,,OVC019,0.00,VWS V14.01,2013-05-06 03:50:00,
2013-05-05 22:52:00,52.5,49.6,30.06,NNW,330,5.5,7.0,90,0.00,,CLR,0.00,VWS V14.01,2013-05-06 03:52:00,
2013-05-05 22:54:00,52.3,49.4,30.06,NNW,331,4.4,10.5,90,0.00,,CLR,0.00,VWS V14.01,2013-05-06 03:54:00,
2013-05-05 22:55:00,52.3,49.4,30.06,NW,315,7.8,10.5,90,0.00,,OVC019,0.00,VWS V14.01,2013-05-06 03:55:00,
2013-05-05 22:56:00,52.3,49.4,30.06,WNW,288,0.0,8.1,90,0.00,,CLR,0.00,VWS V14.01,2013-05-06 03:56:00,
2013-05-05 22:58:00,52.5,49.6,30.06,WNW,283,0.0,3.5,90,0.00,,CLR,0.00,VWS V14.01,2013-05-06 03:58:00,
2013-05-05 23:00:00,52.5,49.6,30.06,NNW,328,3.9,7.0,90,0.00,,OVC019,0.00,VWS V14.01,2013-05-06 04:00:00,
2013-05-05 23:01:00,52.5,49.6,30.06,North,5,3.3,7.0,90,0.00,,OVC019,0.00,VWS V14.01,2013-05-06 04:01:00,
2013-05-05 23:02:00,52.5,49.6,30.06,NNW,343,0.0,7.0,90,0.00,,OVC019,0.00,VWS V14.01,2013-05-06 04:02:00,
2013-05-05 23:04:00,52.5,49.6,30.06,North,10,3.9,6.4,90,0.00,,CLR,0.00,VWS V14.01,2013-05-06 04:04:00,
2013-05-05 23:06:00,52.5,49.6,30.06,West,278,4.4,6.4,90,0.00,,CLR,0.00,VWS V14.01,2013-05-06 04:06:00,
2013-05-05 23:07:00,52.5,49.6,30.06,NW,310,3.3,7.0,90,0.00,,OVC019,0.00,VWS V14.01,2013-05-06 04:07:00,
2013-05-05 23:08:00,52.3,49.4,30.06,NW,304,3.3,7.0,90,0.00,,CLR,0.00,VWS V14.01,2013-05-06 04:08:00,
2013-05-05 23:10:00,52.3,49.4,30.06,NW,314,7.8,8.1,90,0.00,,CLR,0.00,VWS V14.01,2013-05-06 04:10:00,
2013-05-05 23:12:00,52.3,49.4,30.06,NW,323,5.0,8.1,90,0.00,,OVC019,0.00,VWS V14.01,2013-05-06 04:12:00,
2013-05-05 23:14:00,52.3,49.4,30.06,NNW,348,5.5,7.6,90,0.00,,CLR,0.00,VWS V14.01,2013-05-06 04:14:00,
2013-05-05 23:16:00,52.3,49.4,30.06,West,281,2.8,5.8,90,0.00,,CLR,0.00,VWS V14.01,2013-05-06 04:16:00,
2013-05-05 23:17:00,52.3,49.4,30.06,NW,324,10.0,10.5,90,0.00,,OVC019,0.00,VWS V14.01,2013-05-06 04:17:00,
2013-05-05 23:18:00,52.3,49.4,30.06,NNW,343,9.4,10.5,90,0.00,,CLR,0.00,VWS V14.01,2013-05-06 04:18:00,
2013-05-05 23:20:00,52.3,49.4,30.06,NNE,18,5.0,9.9,90,0.00,,CLR,0.00,VWS V14.01,2013-05-06 04:20:00,
2013-05-05 23:22:00,52.3,49.4,30.06,West,277,6.7,7.0,90,0.00,,OVC019,0.00,VWS V14.01,2013-05-06 04:22:00,
2013-05-05 23:24:00,52.3,49.4,30.06,North,4,9.4,12.5,90,0.00,,CLR,0.00,VWS V14.01,2013-05-06 04:24:00,
2013-05-05 23:26:00,52.3,49.8,30.06,SW,229,4.4,9.9,91,0.00,,CLR,0.00,VWS V14.01,2013-05-06 04:26:00,
2013-05-05 23:27:00,52.3,49.8,30.06,West,277,3.9,8.1,91,0.00,,OVC019,0.00,VWS V14.01,2013-05-06 04:27:00,
2013-05-05 23:28:00,52.3,49.8,30.06,NNE,28,0.0,8.1,91,0.00,,CLR,0.00,VWS V14.01,2013-05-06 04:28:00,
2013-05-05 23:30:00,52.2,49.6,30.06,NW,315,3.3,4.1,91,0.00,,CLR,0.00,VWS V14.01,2013-05-06 04:30:00,
2013-05-05 23:32:00,52.2,49.6,30.06,NNE,22,0.0,4.1,91,0.00,,OVC019,0.00,VWS V14.01,2013-05-06 04:32:00,
2013-05-05 23:34:00,52.2,49.6,30.06,NW,322,3.9,4.1,91,0.00,,CLR,0.00,VWS V14.01,2013-05-06 04:34:00,
2013-05-05 23:36:00,52.2,49.6,30.06,WNW,300,5.0,8.1,91,0.00,,CLR,0.00,VWS V14.01,2013-05-06 04:36:00,
2013-05-05 23:37:00,52.2,49.6,30.06,North,353,7.2,9.9,91,0.00,,OVC019,0.00,VWS V14.01,2013-05-06 04:37:00,
2013-05-05 23:38:00,52.2,49.6,30.06,West,275,2.8,9.9,91,0.00,,CLR,0.00,VWS V14.01,2013-05-06 04:38:00,
2013-05-05 23:40:00,52.2,49.6,30.06,NW,309,7.2,10.5,91,0.00,,CLR,0.00,VWS V14.01,2013-05-06 04:40:00,
2013-05-05 23:42:00,52.2,49.6,30.06,West,275,5.0,10.8,91,0.00,,OVC017,0.00,VWS V14.01,2013-05-06 04:42:00,
2013-05-05 23:44:00,52.2,49.6,30.06,WNW,295,6.7,10.8,91,0.00,,CLR,0.00,VWS V14.01,2013-05-06 04:44:00,
2013-05-05 23:46:00,52.2,49.6,30.06,North,357,6.7,8.1,91,0.00,,CLR,0.00,VWS V14.01,2013-05-06 04:46:00,
2013-05-05 23:47:00,52.2,49.6,30.06,WNW,292,7.2,9.3,91,0.00,,OVC017,0.00,VWS V14.01,2013-05-06 04:47:00,
2013-05-05 23:48:00,52.2,49.6,30.06,NW,304,3.3,9.3,91,0.00,,CLR,0.00,VWS V14.01,2013-05-06 04:48:00,
2013-05-05 23:50:00,52.2,49.6,30.06,WNW,301,3.3,7.6,91,0.00,,CLR,0.00,VWS V14.01,2013-05-06 04:50:00,
2013-05-05 23:52:00,52.0,49.5,30.06,NW,310,12.5,13.1,91,0.00,,OVC017,0.00,VWS V14.01,2013-05-06 04:52:00,
2013-05-05 23:54:00,52.0,49.5,30.06,WSW,253,3.9,13.1,91,0.00,,CLR,0.00,VWS V14.01,2013-05-06 04:54:00,
2013-05-05 23:56:00,52.0,49.5,30.06,WNW,283,7.8,8.1,91,0.00,,CLR,0.00,VWS V14.01,2013-05-06 04:56:00,
2013-05-05 23:57:00,52.0,49.5,30.06,West,278,7.2,9.3,91,0.00,,OVC017,0.00,VWS V14.01,2013-05-06 04:57:00,
2013-05-05 23:58:00,52.0,49.5,30.06,NW,304,6.7,9.3,91,0.00,,CLR,0.00,VWS V14.01,2013-05-06 04:58:00,